GFSNGP_850_dewp_000.txt.gz
Dewpoint
3 2 2 3 3 2 3 4 6 5 3 1 -0 -1 -1 -2 -2 -2 -2 1 1 -1 -4 -7 -7 -8 -11 -9 -8 -5 -7 -10 -9 -12 -13 -12 -12 -15 -14 -12 -13 -12 -12 -12
5 3 3 4 3 3 2 2 2 3 4 0 -1 -2 -2 -2 -1 -2 -0 1 0 -2 -5 -8 -9 -9 -6 -5 -4 -5 -10 -9 -10 -13 -12 -12 -16 -14 -13 -13 -13 -13 -12 -11
7 3 4 7 5 3 2 1 2 4 2 -1 -2 -2 -2 -2 -1 1 1 0 2 -3 -7 -10 -9 -5 -4 -3 -5 -9 -9 -10 -12 -11 -13 -15 -15 -13 -14 -14 -13 -13 -12 -10
7 7 8 0 -3 -2 -0 -1 -1 -1 -0 -2 -2 -2 1 2 1 2 2 2 1 -4 -8 -8 -4 -4 -2 -5 -6 -8 -10 -13 -11 -12 -14 -15 -13 -14 -14 -13 -13 -12 -10 -9
8 7 3 1 -1 -0 1 1 -2 -2 -2 -1 1 2 2 1 1 2 3 2 -2 -1 -3 -2 -2 -1 -3 -6 -9 -10 -13 -11 -13 -13 -15 -14 -14 -14 -14 -13 -12 -10 -9 -9
8 7 7 2 -2 -3 -4 3 -2 -2 1 2 2 5 3 2 2 2 2 2 0 0 -1 -1 -1 -3 -7 -9 -10 -10 -11 -12 -9 -14 -14 -13 -14 -14 -13 -12 -10 -9 -10 -10
6 6 5 -0 -3 -2 4 4 0 1 2 2 3 2 3 2 2 2 1 2 1 0 -1 -1 -3 -6 -6 -9 -10 -12 -10 -10 -14 -13 -13 -13 -14 -13 -13 -10 -10 -10 -10 -10
6 7 7 -1 -3 3 1 2 1 1 2 2 2 3 3 2 2 1 1 1 -0 -3 -2 -3 -3 -6 -9 -10 -11 -10 -10 -13 -13 -12 -12 -14 -14 -13 -11 -9 -10 -10 -10 -10
3 4 -0 -0 0 1 1 2 2 2 2 2 4 3 3 1 1 1 1 -1 -2 -2 -3 -4 -8 -10 -10 -11 -11 -11 -13 -12 -11 -11 -13 -14 -13 -11 -10 -10 -10 -10 -10 -10
5 2 1 1 2 2 2 2 2 3 3 4 3 2 1 1 1 0 -1 -1 -2 -3 -6 -8 -11 -13 -12 -12 -11 -12 -13 -10 -9 -12 -17 -14 -12 -11 -10 -10 -10 -10 -10 -10
5 4 2 2 1 1 2 2 2 2 3 4 3 2 1 1 0 -1 -2 -2 -3 -6 -8 -9 -11 -11 -11 -11 -11 -12 -10 -9 -10 -15 -17 -13 -11 -10 -10 -11 -11 -11 -10 -10
5 2 2 3 1 1 1 2 3 3 3 3 3 2 1 -0 -1 -1 -2 -3 -4 -7 -10 -10 -11 -11 -10 -11 -13 -10 -9 -9 -14 -21 -15 -11 -11 -10 -10 -11 -11 -10 -10 -10
2 1 1 1 1 1 2 3 3 2 3 2 2 -0 -0 -1 -2 -3 -4 -4 -8 -9 -10 -10 -10 -9 -13 -13 -11 -9 -8 -11 -20 -16 -11 -11 -11 -11 -11 -11 -11 -11 -10 -10
1 1 2 1 2 2 2 -1 -2 -1 1 0 -0 -1 -2 -4 -3 -3 -4 -7 -9 -10 -10 -9 -11 -14 -13 -11 -10 -8 -9 -16 -19 -13 -11 -11 -11 -11 -11 -11 -11 -11 -11 -10
-1 0 1 1 1 -4 -5 -5 -5 -3 -0 -0 -1 -3 -4 -4 -3 -5 -7 -8 -9 -9 -12 -14 -14 -12 -11 -10 -8 -9 -13 -19 -20 -16 -11 -12 -11 -11 -11 -11 -11 -11 -11 -10
0 0 -1 -6 -6 -5 -5 -4 -3 -1 -1 -1 -3 -4 -5 -4 -6 -8 -9 -12 -13 -14 -14 -13 -12 -12 -11 -9 -9 -11 -13 -17 -19 -15 -12 -11 -11 -12 -12 -12 -12 -12 -12 -11
-3 -5 -6 -5 -5 -4 -2 -1 -1 -1 -2 -3 -3 -4 -5 -7 -8 -12 -15 -15 -14 -14 -12 -12 -12 -11 -9 -9 -10 -12 -13 -14 -19 -12 -12 -12 -12 -12 -12 -12 -12 -12 -12 -11
-7 -6 -5 -5 -3 -2 -3 -1 -1 -2 -3 -4 -6 -7 -9 -11 -14 -15 -15 -15 -13 -12 -11 -10 -9 -9 -8 -8 -9 -13 -17 -18 -14 -13 -12 -12 -13 -13 -13 -13 -13 -13 -12 -12
-6 -7 -7 -5 -3 -4 -4 -4 -5 -7 -7 -7 -10 -13 -15 -15 -14 -14 -14 -14 -13 -11 -7 -10 -10 -8 -8 -8 -9 -13 -16 -18 -13 -12 -13 -13 -13 -13 -13 -13 -13 -13 -13 -12
-5 -7 -6 -3 -4 -5 -5 -4 -6 -7 -13 -15 -15 -15 -14 -13 -13 -14 -14 -13 -10 -9 -9 -9 -9 -8 -9 -9 -9 -13 -15 -18 -16 -15 -14 -13 -13 -13 -14 -14 -14 -14 -13 -13
-7 -8 -5 -4 -4 -5 -5 -9 -14 -16 -15 -15 -14 -14 -13 -14 -13 -12 -11 -9 -8 -8 -7 -8 -9 -9 -8 -9 -9 -12 -14 -18 -18 -18 -15 -14 -14 -14 -14 -14 -14 -14 -14 -14
-8 -7 -6 -5 -6 -9 -15 -15 -15 -14 -14 -14 -13 -11 -10 -9 -9 -8 -7 -6 -6 -6 -6 -7 -9 -9 -8 -9 -9 -10 -13 -18 -18 -17 -15 -14 -14 -14 -15 -15 -15 -15 -15 -15
-6 -7 -5 -5 -9 -15 -13 -14 -14 -12 -10 -9 -9 -8 -9 -9 -10 -8 -7 -6 -7 -7 -7 -7 -8 -8 -8 -9 -9 -10 -12 -17 -17 -17 -18 -18 -17 -15 -15 -15 -16 -16 -16 -17
-4 -5 -3 -5 -13 -14 -11 -13 -12 -10 -9 -8 -9 -12 -13 -13 -13 -10 -9 -9 -8 -8 -8 -8 -8 -8 -8 -9 -9 -10 -11 -15 -16 -17 -18 -19 -19 -18 -16 -16 -16 -16 -17 -18
-3 -3 -4 -6 -14 -10 -12 -12 -10 -9 -8 -8 -11 -12 -12 -12 -11 -9 -9 -9 -9 -9 -8 -8 -8 -8 -8 -9 -9 -10 -10 -14 -15 -16 -17 -17 -19 -19 -18 -19 -18 -19 -21 -22
-4 -4 -5 -10 -9 -11 -12 -10 -9 -7 -6 -8 -12 -12 -11 -10 -9 -9 -9 -9 -8 -8 -8 -8 -8 -8 -8 -9 -9 -10 -10 -13 -14 -16 -17 -19 -19 -20 -20 -20 -21 -23 -25 -27
-4 -5 -5 -7 -10 -11 -10 -8 -6 -6 -7 -13 -14 -12 -12 -10 -9 -9 -8 -9 -9 -8 -8 -8 -8 -8 -8 -9 -9 -10 -10 -12 -13 -14 -17 -18 -19 -19 -20 -22 -24 -26 -29 -30

GFSNGP_850_dewp_003.txt.gz
Dewpoint
3 2 1 2 2 1 2 3 6 4 3 1 -1 -2 -2 -2 -2 -2 -1 -1 -0 1 2 3 -2 -5 -5 -6 -7 -7 -6 -5 -4 -5 -6 -6 -7 -8 -8 -9 -10 -11 -11 -11
6 3 2 4 2 1 1 1 1 1 2 -2 -2 -2 -2 -1 -1 0 0 -0 0 2 3 2 -3 -5 -6 -7 -6 -4 -3 -3 -5 -6 -6 -7 -8 -8 -9 -11 -12 -12 -11 -11
6 3 5 7 5 3 2 -0 0 3 1 -2 -2 -2 -1 0 1 1 1 1 2 3 2 1 -3 -6 -7 -5 -2 -0 -3 -4 -5 -7 -8 -8 -9 -9 -11 -12 -12 -11 -11 -11
7 8 8 0 -2 -2 -1 -2 -2 -2 -2 -2 -1 0 1 1 1 3 3 1 2 3 2 -1 -2 -4 -3 -0 -1 -3 -4 -6 -8 -8 -8 -8 -9 -12 -12 -12 -12 -11 -11 -10
8 6 4 2 -1 -0 1 1 -2 -1 -1 0 1 2 3 2 3 3 2 2 2 2 2 -0 0 0 -0 -1 -3 -5 -8 -8 -9 -9 -8 -10 -12 -12 -12 -12 -11 -11 -10 -9
8 8 7 1 -1 -2 -2 3 0 1 1 2 3 5 4 3 3 3 2 1 1 2 1 1 -0 -1 -2 -4 -7 -8 -8 -9 -9 -9 -10 -12 -12 -11 -12 -12 -11 -10 -9 -9
6 7 4 0 -2 -2 5 4 2 2 2 2 3 3 3 4 2 1 1 1 1 1 1 -0 -1 -2 -6 -6 -6 -9 -10 -8 -9 -10 -12 -11 -12 -12 -12 -11 -10 -10 -10 -10
7 7 8 -2 -1 4 4 2 1 2 2 3 3 3 4 3 2 1 0 1 -0 -0 -0 -1 -2 -3 -6 -9 -10 -10 -9 -9 -10 -11 -10 -11 -12 -13 -11 -10 -10 -10 -10 -11
4 4 0 0 1 1 1 1 3 3 2 3 3 3 3 2 1 0 2 -1 -0 -1 -1 -2 -5 -8 -9 -9 -11 -10 -9 -10 -10 -9 -10 -12 -13 -12 -11 -11 -10 -10 -11 -11
5 2 1 0 1 2 3 3 1 2 2 2 2 3 3 2 1 1 -0 -1 -1 -1 -2 -5 -8 -9 -10 -10 -10 -10 -9 -9 -9 -9 -11 -12 -11 -11 -11 -10 -10 -10 -11 -11
5 3 2 3 3 1 2 1 1 2 2 2 3 2 3 2 -0 -1 -1 -1 -2 -3 -4 -7 -8 -9 -9 -10 -10 -11 -9 -9 -8 -10 -11 -11 -10 -11 -11 -10 -10 -11 -11 -11
5 3 4 2 -0 -1 0 2 2 1 -2 -3 -1 1 2 0 -1 -1 -2 -2 -2 -5 -7 -9 -9 -9 -9 -9 -11 -12 -10 -7 -8 -11 -11 -10 -11 -11 -10 -10 -11 -11 -11 -11
4 3 2 0 -1 0 1 1 -3 -5 -5 -5 -1 1 -0 -1 -2 -2 -2 -2 -5 -7 -8 -8 -8 -8 -8 -13 -12 -11 -10 -9 -11 -10 -10 -10 -11 -11 -10 -11 -11 -11 -11 -11
1 1 -1 -0 0 0 -3 -5 -5 -5 -5 -2 -0 -0 -1 -2 -2 -2 -2 -6 -7 -8 -8 -8 -9 -9 -12 -11 -11 -10 -9 -10 -10 -10 -10 -10 -10 -10 -11 -10 -11 -11 -11 -11
-5 -3 0 0 -1 -5 -5 -6 -5 -4 -2 0 -1 -2 -2 -2 -3 -4 -6 -8 -9 -11 -12 -13 -13 -11 -11 -11 -10 -9 -10 -10 -13 -15 -10 -10 -10 -11 -11 -11 -11 -11 -11 -11
-0 -1 -3 -4 -5 -6 -6 -6 -3 -2 -1 -1 -2 -2 -3 -2 -5 -6 -8 -13 -14 -9 -13 -12 -12 -13 -12 -10 -9 -8 -10 -10 -12 -11 -10 -10 -11 -11 -11 -11 -11 -12 -12 -12
-4 -4 -5 -5 -5 -6 -5 -3 -1 -2 -2 -2 -3 -3 -5 -7 -8 -11 -14 -15 -14 -14 -12 -12 -10 -9 -10 -9 -8 -9 -9 -10 -11 -10 -10 -11 -11 -11 -11 -11 -11 -12 -12 -12
-5 -5 -5 -6 -6 -5 -3 -3 -5 -6 -5 -6 -6 -7 -9 -12 -14 -15 -14 -14 -13 -13 -11 -9 -10 -11 -11 -8 -8 -8 -9 -10 -10 -10 -11 -11 -11 -11 -12 -12 -12 -12 -12 -13
-5 -5 -5 -6 -5 -2 -4 -9 -5 -5 -7 -7 -12 -15 -15 -15 -14 -13 -13 -14 -13 -10 -6 -8 -9 -10 -10 -9 -9 -9 -10 -11 -11 -10 -11 -11 -11 -12 -12 -13 -13 -13 -13 -13
-6 -5 -5 -6 -5 -2 -4 -5 -4 -6 -12 -16 -15 -15 -14 -13 -12 -13 -13 -12 -10 -8 -8 -8 -8 -10 -10 -9 -9 -9 -10 -11 -11 -11 -11 -12 -12 -12 -13 -13 -13 -14 -13 -13
-5 -4 -5 -7 -7 -4 -4 -5 -7 -16 -15 -15 -15 -15 -14 -13 -11 -10 -9 -6 -5 -6 -7 -7 -7 -8 -9 -9 -9 -10 -10 -11 -11 -12 -12 -12 -12 -13 -13 -13 -13 -14 -14 -14
-4 -3 -4 -6 -7 -4 -4 -11 -14 -12 -15 -12 -10 -10 -9 -8 -10 -11 -12 -8 -6 -6 -6 -7 -7 -7 -8 -8 -9 -9 -10 -11 -12 -12 -12 -13 -13 -13 -13 -14 -14 -14 -15 -15
-4 -3 -3 -4 -5 -4 -5 -13 -10 -13 -12 -10 -9 -9 -11 -14 -15 -14 -11 -8 -9 -9 -9 -8 -7 -8 -8 -8 -9 -9 -10 -10 -12 -13 -13 -13 -14 -14 -14 -15 -15 -15 -15 -16
-3 -2 -3 -3 -4 -4 -10 -11 -10 -12 -10 -9 -10 -11 -14 -15 -15 -8 -10 -9 -9 -9 -9 -8 -8 -8 -8 -8 -9 -9 -10 -11 -12 -13 -13 -16 -14 -14 -14 -15 -15 -15 -16 -16
-3 -3 -3 -4 -4 -7 -11 -9 -11 -11 -10 -8 -9 -12 -15 -13 -12 -11 -11 -10 -9 -9 -9 -8 -8 -8 -8 -9 -9 -9 -10 -11 -12 -12 -13 -14 -14 -14 -15 -15 -15 -16 -16 -19
-3 -4 -4 -4 -5 -8 -7 -9 -10 -7 -8 -7 -8 -14 -15 -14 -12 -9 -7 -8 -8 -9 -8 -8 -8 -8 -8 -8 -9 -9 -10 -11 -12 -14 -13 -14 -14 -15 -15 -15 -18 -18 -23 -29
-4 -4 -5 -5 -6 -7 -8 -10 -10 -7 -7 -8 -10 -15 -14 -13 -12 -9 -8 -8 -8 -8 -8 -8 -8 -8 -8 -8 -9 -9 -10 -10 -11 -12 -14 -14 -14 -14 -15 -16 -17 -26 -30 -31

GFSNGP_850_dewp_006.txt.gz
Dewpoint
3 2 3 3 3 2 3 2 4 3 2 -0 -1 -2 -1 -0 0 0 0 1 2 2 1 1 2 2 -1 -3 -5 -5 -6 -7 -6 -5 -4 -3 -4 -5 -7 -7 -8 -9 -10 -12
6 4 3 3 3 3 2 1 1 1 2 -2 -3 -1 -0 1 1 2 3 3 3 2 1 2 2 2 -2 -5 -6 -7 -6 -4 -2 -1 -3 -3 -5 -7 -8 -8 -9 -11 -11 -11
7 4 5 6 4 2 2 0 0 3 0 -2 -2 1 1 2 2 3 3 3 3 2 0 2 1 0 -0 -4 -4 -4 -2 -1 -2 -2 -4 -6 -7 -8 -8 -9 -11 -12 -12 -11
7 6 7 1 -1 -1 1 0 -0 -1 -2 -2 -0 3 2 3 3 3 4 3 2 1 1 2 1 1 0 1 0 -1 -1 -2 -3 -5 -7 -7 -8 -8 -11 -12 -11 -11 -11 -11
7 7 4 3 0 1 2 2 -1 1 2 2 3 4 3 3 4 4 3 2 1 1 1 1 0 1 1 0 -0 -2 -3 -6 -8 -7 -8 -8 -9 -11 -12 -11 -11 -11 -11 -11
9 7 7 2 -1 -2 -1 4 3 3 3 4 3 5 4 3 3 3 3 2 0 0 1 -1 0 -1 -2 -2 -4 -6 -6 -7 -8 -9 -8 -10 -11 -11 -11 -12 -12 -11 -11 -9
6 7 5 1 -1 0 6 7 4 4 4 4 4 4 3 3 3 3 2 -0 0 1 -2 -1 -0 -1 -3 -5 -6 -4 -8 -10 -10 -9 -10 -11 -10 -11 -12 -12 -11 -11 -9 -10
5 7 7 -0 1 5 3 3 3 4 4 4 3 3 3 2 3 0 1 -0 1 -1 -1 -0 -1 -1 -4 -7 -9 -10 -10 -10 -9 -10 -10 -9 -10 -12 -12 -11 -11 -10 -11 -11
3 4 0 0 1 2 2 3 3 3 2 3 2 2 2 3 2 2 0 1 -1 -1 -0 -1 -2 -7 -8 -8 -9 -9 -9 -9 -10 -11 -10 -10 -11 -11 -11 -11 -10 -11 -10 -11
4 1 1 1 2 2 3 3 3 3 3 2 -0 -3 -3 0 2 1 0 -1 -1 -1 -1 -3 -5 -8 -9 -10 -9 -9 -12 -11 -12 -9 -9 -10 -11 -10 -10 -11 -11 -10 -11 -11
3 2 2 2 2 2 3 2 3 2 -0 -4 -5 -5 -4 1 0 0 -1 -2 -1 -1 -2 -5 -7 -8 -9 -9 -9 -11 -13 -12 -9 -8 -10 -11 -10 -10 -10 -10 -11 -11 -11 -11
4 2 3 3 2 2 2 3 2 -3 -5 -5 -4 -1 0 -0 -1 -1 -3 -2 -1 -2 -6 -7 -8 -9 -8 -8 -10 -12 -12 -11 -10 -11 -11 -9 -10 -10 -11 -12 -12 -11 -11 -11
2 1 1 1 1 1 2 -1 -4 -6 -5 -2 -0 -1 -1 -1 -1 -3 -1 -1 -3 -7 -7 -8 -8 -8 -8 -10 -13 -12 -12 -10 -10 -10 -10 -10 -10 -11 -12 -12 -12 -12 -11 -11
-0 0 1 1 1 -0 -4 -4 -5 -4 -2 -1 -1 -2 -2 -2 -1 -2 -3 -5 -7 -8 -7 -8 -11 -11 -10 -11 -12 -11 -11 -10 -9 -10 -13 -11 -11 -11 -11 -11 -12 -12 -11 -11
-1 -1 -1 -3 -4 -5 -5 -6 -5 -2 -1 -2 -2 -2 -2 -2 -2 -3 -5 -8 -11 -12 -11 -13 -14 -13 -13 -12 -12 -10 -9 -9 -10 -10 -11 -10 -10 -12 -11 -12 -12 -11 -12 -12
-1 -3 -4 -4 -5 -6 -6 -5 -3 -1 -6 -4 -5 -4 -5 -5 -6 -6 -7 -11 -15 -14 -13 -13 -13 -11 -11 -12 -10 -9 -8 -8 -9 -10 -10 -11 -12 -12 -12 -13 -12 -12 -12 -12
-5 -5 -6 -6 -6 -6 -5 -4 -2 -4 -8 -9 -7 -6 -6 -8 -10 -11 -12 -14 -14 -14 -13 -13 -10 -10 -10 -11 -9 -8 -8 -9 -9 -10 -11 -11 -11 -13 -12 -13 -12 -12 -12 -13
-6 -6 -6 -6 -6 -6 -5 -3 -3 -8 -7 -9 -7 -9 -14 -15 -15 -14 -14 -13 -14 -14 -12 -7 -7 -9 -9 -10 -9 -9 -9 -9 -10 -10 -10 -12 -12 -11 -12 -13 -13 -12 -13 -13
-6 -7 -9 -8 -7 -5 -6 -4 -2 -4 -4 -5 -13 -16 -15 -14 -14 -13 -13 -13 -12 -10 -7 -7 -8 -8 -8 -10 -9 -9 -9 -10 -10 -11 -11 -12 -12 -13 -13 -14 -13 -13 -13 -14
-10 -9 -7 -6 -6 -5 -5 -7 -2 -4 -4 -13 -14 -15 -15 -14 -14 -13 -11 -10 -6 -5 -5 -6 -7 -7 -8 -8 -9 -9 -9 -10 -10 -11 -12 -12 -12 -13 -13 -14 -13 -14 -14 -14
-7 -7 -7 -5 -4 -3 -4 -6 -4 -4 -7 -12 -11 -13 -11 -10 -10 -11 -12 -13 -7 -7 -7 -7 -7 -7 -7 -8 -8 -9 -9 -10 -10 -11 -12 -12 -13 -13 -13 -14 -14 -14 -14 -15
-6 -6 -5 -5 -4 -3 -3 -3 -3 -5 -12 -9 -12 -11 -10 -10 -13 -12 -10 -9 -10 -11 -10 -9 -7 -8 -8 -8 -8 -9 -9 -10 -10 -11 -12 -12 -13 -13 -14 -14 -14 -14 -15 -15
-6 -4 -3 -3 -2 -2 -3 -3 -4 -7 -7 -11 -11 -10 -11 -12 -14 -13 -11 -11 -11 -10 -9 -8 -8 -8 -8 -8 -8 -9 -9 -10 -11 -11 -12 -13 -13 -13 -14 -14 -15 -15 -16 -15
-5 -4 -4 -4 -4 -4 -3 -4 -6 -7 -9 -10 -10 -10 -10 -13 -13 -8 -8 -12 -11 -9 -9 -9 -9 -8 -8 -9 -9 -9 -9 -10 -11 -11 -12 -13 -13 -14 -14 -14 -15 -15 -16 -16
-5 -3 -3 -4 -4 -4 -5 -5 -6 -8 -10 -10 -9 -9 -12 -13 -15 -15 -13 -9 -8 -8 -8 -8 -8 -8 -8 -8 -8 -9 -9 -10 -10 -11 -12 -12 -13 -14 -14 -14 -16 -18 -19 -22
-4 -4 -4 -4 -4 -5 -5 -6 -7 -7 -8 -6 -6 -7 -10 -14 -15 -15 -12 -8 -8 -8 -8 -8 -8 -8 -8 -8 -8 -9 -9 -10 -10 -11 -11 -13 -13 -15 -15 -16 -19 -22 -27 -30
-4 -4 -3 -4 -5 -5 -6 -5 -7 -6 -7 -8 -7 -8 -12 -15 -15 -14 -9 -8 -8 -8 -9 -9 -9 -9 -9 -8 -9 -9 -9 -10 -10 -10 -11 -12 -14 -15 -16 -18 -20 -26 -30 -31

GFSNGP_850_dewp_009.txt.gz
Dewpoint
4 4 4 3 3 3 4 3 5 3 3 1 -1 1 2 2 2 2 3 3 3 2 2 -1 -1 1 2 1 -0 -5 -5 -6 -7 -7 -6 -5 -4 -3 -4 -6 -7 -7 -8 -8
6 5 5 5 3 3 2 2 3 2 2 -1 -1 3 3 3 3 3 3 3 2 1 2 -0 1 2 2 1 -0 -2 -4 -5 -5 -3 -2 -2 -2 -3 -4 -7 -8 -8 -9 -12
7 4 4 4 2 2 2 0 1 3 2 3 3 3 3 3 3 3 3 3 3 3 2 0 2 2 1 0 -0 1 0 -0 -1 -1 -2 -4 -4 -6 -7 -8 -8 -11 -12 -12
7 4 7 2 -1 -1 1 1 1 4 4 3 4 4 3 3 3 3 2 3 3 0 -0 1 1 1 -1 -1 0 0 -0 -2 -4 -4 -4 -7 -7 -8 -8 -9 -11 -12 -13 -12
6 6 4 3 2 1 1 2 4 4 4 3 4 4 3 3 3 3 2 3 1 1 0 -1 0 -2 -2 -3 -4 -5 -4 -4 -7 -7 -7 -8 -9 -9 -10 -11 -12 -12 -12 -12
4 5 4 1 -0 3 2 5 4 4 5 4 4 4 3 3 2 2 3 2 1 0 -1 0 -2 -2 -1 -3 -5 -5 -6 -7 -7 -8 -10 -9 -10 -11 -11 -11 -11 -12 -12 -10
2 4 3 1 -1 2 4 5 4 4 4 4 4 3 3 0 1 1 2 2 1 -0 -0 -2 -0 -1 -1 -4 -7 -5 -7 -8 -9 -10 -10 -10 -10 -11 -11 -11 -12 -10 -10 -11
2 6 4 1 -0 2 1 2 1 3 3 3 4 3 1 -2 -4 1 2 1 0 -0 -2 -0 -1 -2 -4 -7 -9 -8 -8 -9 -11 -11 -11 -12 -11 -10 -11 -11 -10 -10 -11 -12
3 2 0 -0 -0 0 1 2 3 3 4 2 2 -1 -5 -5 -1 1 1 0 -1 -2 -1 -1 -3 -4 -6 -7 -7 -9 -9 -12 -14 -13 -12 -10 -9 -12 -11 -10 -10 -10 -11 -12
2 1 0 1 1 1 1 2 4 3 3 -0 -2 -4 -3 -1 -1 -0 -0 -2 -2 -1 -2 -3 -5 -7 -8 -8 -9 -9 -13 -14 -12 -12 -10 -10 -12 -10 -10 -10 -10 -11 -11 -11
3 1 1 1 1 2 3 3 2 -0 -3 -4 -4 -2 -1 -3 -5 -2 -2 -3 -2 -2 -3 -5 -7 -7 -8 -9 -9 -9 -10 -12 -12 -11 -11 -12 -12 -10 -10 -12 -12 -11 -11 -10
4 1 2 2 2 2 2 0 -2 -4 -3 -3 -2 -2 -6 -4 -3 -2 -2 -1 -2 -4 -6 -6 -6 -7 -8 -8 -8 -10 -13 -13 -11 -11 -11 -12 -13 -11 -12 -11 -11 -13 -11 -11
2 2 1 2 2 2 -1 -3 -3 -3 -4 -3 -4 -8 -4 -3 -2 -1 -2 -5 -5 -4 -5 -7 -8 -8 -11 -13 -14 -14 -13 -12 -11 -10 -10 -12 -12 -10 -12 -11 -12 -13 -11 -11
1 1 2 1 -2 -4 -3 -4 -5 -4 -3 -3 -8 -5 -3 -2 -2 -3 -4 -5 -6 -8 -12 -11 -13 -14 -13 -12 -11 -11 -10 -8 -8 -9 -9 -11 -11 -11 -12 -11 -13 -12 -11 -12
-0 -1 -3 -3 -4 -5 -5 -5 -5 -4 -3 -4 -9 -8 -6 -5 -6 -5 -6 -6 -8 -14 -13 -10 -13 -13 -11 -11 -11 -10 -8 -8 -8 -9 -10 -11 -11 -11 -13 -12 -14 -12 -12 -12
-3 -4 -4 -4 -4 -5 -6 -6 -5 -4 -3 -5 -9 -7 -7 -7 -9 -11 -11 -11 -14 -14 -14 -14 -12 -9 -10 -9 -10 -10 -9 -8 -9 -9 -10 -11 -11 -12 -13 -12 -14 -12 -12 -13
-3 -5 -6 -7 -8 -9 -7 -6 -6 -5 -3 -5 -7 -8 -8 -15 -16 -15 -15 -14 -13 -14 -13 -12 -7 -7 -9 -8 -10 -9 -9 -9 -10 -10 -10 -10 -11 -12 -12 -13 -14 -13 -13 -13
-6 -7 -11 -12 -11 -11 -9 -7 -5 -5 -5 -2 -5 -5 -15 -15 -15 -14 -14 -13 -13 -12 -10 -7 -7 -7 -8 -7 -9 -10 -9 -10 -10 -11 -11 -11 -12 -12 -13 -14 -14 -14 -13 -14
-7 -8 -13 -10 -11 -8 -6 -5 -4 -4 -5 -2 -3 -6 -14 -15 -15 -14 -13 -11 -10 -9 -7 -6 -6 -7 -7 -8 -8 -9 -9 -9 -10 -11 -11 -12 -12 -13 -13 -13 -14 -14 -14 -14
-7 -9 -7 -8 -12 -9 -6 -5 -3 -3 -4 -3 -3 -11 -10 -12 -12 -11 -11 -12 -10 -8 -7 -8 -8 -8 -8 -8 -8 -8 -9 -9 -10 -11 -11 -12 -13 -13 -13 -14 -14 -14 -15 -15
-6 -5 -7 -11 -10 -6 -4 -3 -3 -3 -3 -3 -7 -9 -10 -11 -10 -14 -16 -16 -9 -10 -11 -9 -8 -8 -8 -8 -8 -8 -9 -9 -10 -11 -12 -12 -12 -13 -13 -14 -14 -14 -15 -15
-7 -8 -11 -8 -7 -4 -5 -5 -4 -3 -4 -5 -7 -7 -10 -10 -12 -13 -13 -9 -10 -10 -9 -8 -8 -8 -8 -8 -8 -8 -9 -10 -10 -11 -12 -12 -13 -14 -14 -14 -15 -14 -15 -16
-10 -11 -8 -6 -5 -4 -3 -4 -3 -4 -4 -6 -6 -9 -9 -10 -12 -13 -12 -9 -9 -8 -8 -8 -8 -9 -9 -9 -9 -9 -10 -10 -11 -11 -12 -12 -13 -14 -14 -14 -15 -15 -15 -17
-10 -9 -6 -5 -4 -3 -3 -4 -4 -5 -5 -6 -9 -8 -9 -10 -13 -12 -8 -9 -8 -8 -8 -8 -9 -8 -9 -9 -8 -9 -10 -10 -10 -11 -11 -12 -13 -13 -14 -14 -15 -16 -19 -23
-7 -7 -7 -5 -4 -4 -4 -4 -5 -5 -6 -7 -8 -8 -8 -11 -16 -15 -13 -10 -8 -8 -8 -9 -9 -9 -9 -9 -9 -10 -9 -9 -10 -11 -11 -12 -12 -13 -14 -14 -15 -20 -25 -29
-6 -6 -6 -4 -4 -4 -4 -5 -5 -6 -6 -7 -7 -6 -6 -8 -13 -14 -12 -10 -9 -8 -8 -9 -9 -9 -9 -9 -9 -10 -9 -9 -10 -10 -11 -11 -12 -13 -15 -16 -18 -24 -29 -32
-5 -5 -4 -4 -5 -5 -5 -5 -5 -5 -5 -5 -5 -6 -7 -8 -13 -11 -10 -9 -8 -8 -8 -8 -9 -9 -9 -9 -10 -9 -9 -9 -9 -10 -10 -11 -12 -12 -15 -17 -19 -25 -29 -30

GFSNGP_850_dewp_012.txt.gz
Dewpoint
4 4 4 4 4 4 4 3 5 4 3 1 3 3 3 3 3 3 3 3 2 1 -0 1 -2 -2 0 2 1 0 -1 -2 -5 -6 -5 -4 -4 -3 -3 -2 -4 -8 -8 -8
5 4 5 6 4 4 3 3 3 3 2 3 3 3 3 3 3 3 3 3 1 0 1 1 -1 -1 1 1 -1 -2 -0 0 -1 -1 -1 -2 -1 -3 -6 -8 -8 -7 -8 -9
5 4 5 5 3 2 1 1 1 3 2 3 3 4 4 3 2 3 3 2 1 2 2 1 0 0 0 -1 -3 -3 -0 -1 -1 -1 -3 -6 -7 -7 -7 -7 -8 -9 -11 -11
5 5 7 2 0 -0 1 1 1 4 4 4 3 3 4 3 2 3 2 1 1 2 2 1 0 0 -0 -3 -4 -4 -4 -3 -3 -4 -5 -7 -8 -8 -8 -9 -11 -11 -11 -12
4 6 4 3 1 1 3 3 3 4 3 3 3 3 2 3 3 1 1 1 -0 2 1 0 0 -0 -2 -2 -3 -3 -4 -4 -5 -7 -7 -9 -9 -10 -10 -11 -11 -12 -12 -12
4 5 5 0 -1 2 3 4 4 3 3 2 2 5 3 3 0 -3 -4 -2 1 2 1 0 -1 -1 -1 -1 -5 -5 -5 -4 -5 -6 -8 -10 -11 -10 -11 -12 -11 -12 -12 -11
-0 3 1 -0 -1 0 0 1 1 1 2 3 4 4 3 1 -3 -4 -1 2 2 1 1 -1 -1 -1 -2 -6 -7 -7 -7 -7 -8 -10 -11 -11 -12 -12 -11 -11 -13 -12 -11 -11
2 4 4 0 0 2 0 1 1 2 4 3 2 2 1 -1 -0 -1 -2 -3 -1 -1 -2 -1 -1 -2 -2 -6 -5 -6 -8 -9 -12 -13 -14 -13 -12 -10 -11 -13 -11 -10 -11 -13
1 1 -1 -0 -0 0 1 1 2 4 4 3 1 0 -2 -2 -2 -6 -6 -5 -4 -2 -2 -3 -4 -4 -5 -6 -6 -7 -9 -12 -14 -13 -13 -11 -10 -12 -12 -11 -10 -11 -12 -13
2 0 0 0 1 1 1 3 3 2 -0 0 -0 -2 -2 -3 -8 -6 -4 -2 -2 -2 -2 -3 -5 -7 -8 -7 -8 -9 -9 -9 -12 -13 -13 -11 -12 -13 -11 -11 -12 -12 -13 -12
3 2 2 1 1 2 3 3 0 -1 -1 -1 -2 -3 -5 -8 -8 -5 -3 -3 -2 -3 -4 -5 -6 -6 -7 -8 -8 -8 -9 -14 -14 -13 -11 -11 -12 -12 -12 -12 -12 -12 -13 -11
4 1 2 2 2 3 2 0 -0 -0 -4 -2 -3 -3 -6 -9 -5 -3 -2 -3 -4 -4 -4 -5 -8 -8 -8 -9 -12 -14 -14 -13 -12 -11 -10 -10 -11 -12 -11 -12 -12 -13 -12 -11
3 3 3 2 1 1 1 -0 -3 -5 -6 -4 -3 -3 -8 -9 -5 -3 -3 -4 -5 -7 -7 -7 -7 -9 -14 -14 -13 -12 -13 -11 -9 -8 -9 -10 -11 -11 -12 -12 -13 -13 -12 -12
2 2 2 2 -1 -1 -1 -3 -5 -6 -5 -4 -3 -4 -9 -10 -9 -6 -6 -5 -5 -6 -12 -11 -8 -12 -13 -11 -11 -11 -11 -10 -9 -9 -9 -10 -11 -11 -11 -13 -13 -14 -13 -13
1 0 -1 -2 -2 -4 -5 -8 -7 -6 -6 -6 -4 -4 -9 -9 -7 -7 -8 -9 -8 -10 -13 -13 -13 -12 -10 -9 -9 -10 -10 -9 -9 -9 -10 -10 -11 -11 -12 -12 -13 -14 -13 -13
-3 -3 -3 -6 -12 -14 -14 -14 -7 -6 -5 -5 -5 -4 -6 -8 -9 -14 -15 -14 -14 -13 -13 -13 -12 -10 -7 -8 -8 -9 -10 -9 -9 -10 -10 -11 -11 -12 -12 -13 -13 -14 -13 -14
-3 -2 -3 -10 -12 -16 -14 -12 -10 -8 -6 -4 -4 -3 -3 -5 -9 -14 -13 -13 -13 -13 -13 -11 -7 -6 -6 -7 -7 -9 -9 -9 -10 -10 -11 -11 -12 -12 -13 -13 -14 -14 -13 -14
-3 -5 -9 -11 -11 -13 -14 -13 -8 -7 -5 -3 -3 -3 -2 -4 -11 -10 -14 -14 -13 -10 -8 -7 -7 -8 -7 -7 -8 -8 -9 -9 -10 -10 -11 -12 -12 -12 -13 -13 -14 -14 -14 -14
-6 -6 -7 -9 -8 -12 -8 -6 -5 -6 -5 -3 -3 -3 -3 -7 -7 -11 -12 -10 -10 -13 -13 -12 -10 -9 -8 -8 -8 -8 -8 -9 -10 -10 -11 -12 -12 -13 -13 -13 -14 -14 -15 -15
-11 -9 -8 -7 -9 -10 -7 -7 -5 -5 -6 -5 -4 -4 -4 -6 -8 -10 -9 -14 -15 -13 -16 -12 -10 -9 -9 -9 -9 -8 -8 -9 -10 -11 -11 -12 -12 -13 -13 -14 -14 -14 -15 -15
-12 -9 -8 -10 -11 -14 -10 -7 -4 -4 -3 -4 -3 -4 -6 -6 -9 -8 -13 -15 -11 -13 -11 -9 -9 -8 -9 -9 -9 -9 -9 -10 -11 -11 -12 -12 -12 -13 -14 -14 -14 -14 -15 -16
-9 -9 -9 -9 -10 -9 -8 -5 -4 -3 -4 -4 -4 -5 -6 -8 -8 -9 -11 -11 -12 -12 -9 -8 -8 -9 -9 -9 -9 -9 -10 -10 -11 -11 -12 -12 -12 -13 -14 -15 -15 -15 -15 -16
-9 -9 -8 -7 -7 -7 -6 -5 -4 -5 -5 -5 -5 -6 -7 -8 -9 -10 -11 -11 -10 -8 -9 -8 -9 -9 -9 -9 -8 -9 -10 -10 -10 -11 -11 -12 -12 -13 -14 -15 -15 -15 -16 -19
-9 -8 -7 -6 -6 -6 -5 -5 -4 -5 -4 -5 -5 -6 -7 -7 -9 -10 -9 -10 -9 -9 -9 -9 -9 -9 -10 -9 -9 -10 -10 -10 -10 -10 -11 -11 -12 -12 -13 -15 -15 -16 -20 -25
-6 -6 -5 -5 -5 -6 -6 -5 -4 -5 -5 -5 -6 -6 -7 -7 -10 -13 -14 -12 -9 -9 -9 -9 -9 -9 -10 -10 -10 -10 -10 -10 -10 -10 -11 -11 -12 -12 -13 -15 -15 -19 -26 -31
-5 -4 -4 -4 -5 -5 -4 -4 -4 -5 -6 -6 -6 -6 -6 -6 -7 -10 -13 -11 -9 -9 -9 -9 -9 -9 -10 -10 -10 -10 -10 -9 -10 -10 -10 -11 -11 -12 -13 -16 -17 -22 -30 -32
-5 -5 -6 -5 -6 -5 -5 -5 -5 -6 -6 -5 -6 -6 -6 -6 -6 -9 -10 -9 -9 -9 -9 -9 -9 -10 -10 -10 -10 -10 -10 -10 -10 -10 -10 -10 -11 -12 -12 -15 -18 -22 -27 -28

GFSNGP_850_dewp_015.txt.gz
Dewpoint
3 3 3 4 4 4 5 4 5 4 4 2 2 3 3 3 3 3 3 2 3 3 1 0 2 -1 -1 -1 -0 -1 -2 -4 -1 -1 -3 -4 -3 -3 -3 -3 -4 -7 -8 -7
4 4 4 5 4 4 4 4 4 3 2 1 3 3 3 3 3 3 2 3 2 0 -0 -1 -1 0 0 -0 -0 -1 -4 -4 -1 -1 -2 -2 -3 -4 -5 -5 -5 -6 -7 -8
3 4 3 2 2 3 2 1 1 3 1 3 4 3 3 3 3 3 3 2 -1 -5 -2 -2 -0 1 1 0 -1 -3 -5 -5 -4 -4 -4 -4 -4 -4 -5 -5 -7 -9 -10 -11
4 4 5 1 -0 -0 1 1 0 2 3 3 3 2 2 3 3 3 0 -1 -4 -6 -3 0 2 1 0 -1 -1 -2 -2 -2 -2 -3 -3 -5 -8 -8 -9 -10 -10 -11 -12 -13
6 5 2 2 0 1 1 2 2 4 3 1 1 2 2 3 3 1 -2 -3 -2 -2 0 2 0 -1 -2 -1 -1 -2 -2 -3 -5 -5 -5 -6 -7 -10 -11 -11 -12 -13 -12 -13
4 5 5 1 -2 1 2 4 2 3 2 1 2 4 3 2 1 -1 -2 1 -2 -4 -2 -2 -2 -1 -1 -2 -4 -4 -5 -6 -7 -7 -9 -10 -11 -12 -13 -12 -12 -12 -14 -13
3 4 2 -1 -2 -1 2 1 1 1 1 2 3 3 3 1 -4 -0 -2 -7 -8 -7 -4 -3 -2 -1 -1 -3 -5 -6 -5 -6 -9 -11 -14 -14 -13 -12 -11 -11 -13 -13 -14 -14
2 3 3 -1 0 2 1 -0 1 2 3 4 2 1 -1 -2 -2 -3 -8 -8 -6 -4 -3 -3 -2 -2 -3 -4 -5 -7 -5 -9 -10 -11 -13 -13 -12 -12 -12 -13 -14 -14 -14 -15
1 2 -1 -1 -0 -0 0 1 2 3 2 1 1 -3 -3 -1 -3 -7 -8 -6 -3 -3 -2 -3 -2 -3 -5 -5 -4 -6 -8 -8 -8 -12 -14 -13 -11 -12 -13 -13 -13 -13 -12 -13
2 1 -0 0 1 1 2 2 3 2 0 -1 -2 -5 -2 -2 -6 -9 -9 -5 -2 -3 -4 -5 -5 -6 -5 -6 -6 -8 -8 -9 -13 -13 -13 -11 -11 -11 -13 -12 -12 -12 -12 -13
3 2 2 2 2 3 3 3 1 1 0 -4 -4 -3 -2 -3 -5 -9 -8 -4 -3 -4 -5 -6 -7 -7 -7 -7 -8 -9 -13 -13 -13 -12 -11 -11 -10 -11 -11 -12 -12 -12 -13 -12
4 2 2 2 4 3 3 1 -1 -3 -9 -6 -5 -4 -2 -4 -6 -10 -8 -5 -5 -5 -6 -6 -6 -7 -8 -10 -13 -12 -12 -12 -11 -10 -9 -10 -10 -11 -11 -12 -12 -13 -14 -12
3 2 3 4 2 1 -0 -2 -5 -4 -5 -6 -6 -4 -4 -4 -7 -9 -8 -7 -6 -5 -5 -6 -11 -9 -9 -12 -12 -10 -11 -12 -11 -9 -9 -10 -10 -11 -12 -12 -13 -13 -14 -13
2 3 3 1 -0 -1 -6 -4 -7 -9 -5 -5 -5 -5 -5 -4 -5 -9 -8 -7 -8 -9 -8 -10 -12 -11 -12 -12 -9 -9 -9 -10 -10 -10 -10 -10 -11 -11 -11 -12 -12 -14 -15 -14
1 1 1 -2 -6 -10 -14 -17 -18 -18 -14 -11 -7 -5 -5 -4 -4 -7 -8 -12 -14 -14 -13 -13 -13 -13 -12 -10 -7 -8 -8 -9 -10 -10 -10 -11 -11 -11 -12 -13 -13 -14 -15 -14
-2 -3 -5 -5 -8 -10 -10 -13 -16 -16 -13 -9 -7 -4 -3 -3 -4 -4 -6 -13 -11 -14 -13 -13 -13 -12 -7 -6 -7 -7 -8 -9 -10 -10 -10 -11 -11 -12 -13 -13 -13 -14 -14 -14
-3 -1 -3 -7 -6 -8 -10 -12 -11 -8 -6 -5 -6 -4 -3 -4 -4 -4 -5 -10 -10 -13 -13 -12 -9 -7 -8 -9 -8 -8 -8 -9 -9 -10 -10 -11 -12 -13 -13 -13 -13 -14 -14 -15
-3 -3 -4 -9 -11 -9 -9 -12 -11 -8 -6 -5 -4 -5 -5 -3 -4 -4 -8 -7 -12 -12 -10 -10 -11 -14 -11 -9 -8 -9 -9 -9 -9 -10 -10 -11 -12 -12 -13 -13 -13 -14 -15 -15
-9 -10 -13 -12 -9 -8 -8 -9 -11 -8 -5 -4 -3 -4 -4 -4 -4 -6 -6 -9 -11 -10 -12 -14 -16 -13 -9 -9 -9 -9 -9 -9 -9 -10 -11 -12 -12 -13 -13 -14 -14 -14 -15 -15
-14 -13 -10 -9 -9 -8 -8 -8 -8 -8 -6 -3 -4 -5 -5 -4 -5 -6 -7 -9 -10 -14 -16 -17 -15 -9 -9 -9 -9 -10 -9 -9 -10 -10 -11 -12 -12 -13 -13 -14 -14 -15 -15 -16
-10 -9 -9 -10 -10 -9 -8 -8 -7 -6 -6 -5 -5 -6 -5 -5 -6 -6 -8 -9 -12 -12 -12 -14 -10 -9 -9 -9 -10 -9 -9 -10 -10 -11 -11 -12 -12 -13 -14 -14 -15 -15 -15 -16
-9 -10 -10 -9 -8 -8 -8 -6 -6 -5 -5 -5 -6 -5 -5 -6 -6 -7 -7 -8 -8 -10 -10 -9 -9 -9 -10 -9 -10 -9 -10 -10 -10 -11 -11 -12 -12 -12 -13 -15 -15 -15 -16 -19
-10 -9 -8 -7 -6 -6 -6 -5 -6 -6 -6 -6 -4 -5 -5 -6 -6 -7 -7 -9 -9 -9 -9 -9 -9 -10 -10 -10 -9 -10 -10 -10 -10 -11 -11 -11 -12 -12 -12 -14 -15 -15 -16 -23
-9 -8 -7 -7 -6 -5 -5 -5 -6 -5 -4 -4 -5 -5 -6 -6 -7 -7 -8 -9 -10 -11 -9 -9 -9 -9 -10 -10 -10 -11 -10 -10 -11 -10 -10 -11 -12 -12 -12 -13 -16 -17 -23 -30
-7 -7 -7 -7 -5 -5 -6 -5 -5 -5 -5 -5 -6 -6 -7 -7 -7 -7 -8 -11 -11 -9 -9 -9 -10 -10 -10 -10 -10 -10 -10 -11 -10 -10 -10 -11 -11 -12 -12 -13 -16 -18 -25 -32
-7 -7 -7 -6 -6 -6 -5 -5 -5 -5 -5 -6 -6 -7 -7 -7 -6 -7 -7 -11 -10 -9 -9 -9 -10 -10 -10 -10 -10 -10 -10 -10 -10 -10 -10 -10 -11 -11 -12 -13 -16 -19 -27 -32
-8 -9 -8 -5 -6 -6 -6 -6 -5 -5 -5 -6 -6 -8 -7 -6 -6 -7 -8 -8 -9 -9 -10 -10 -10 -11 -10 -10 -10 -10 -10 -10 -11 -10 -10 -10 -11 -11 -12 -12 -15 -18 -24 -26

GFSNGP_850_dewp_018.txt.gz
Dewpoint
3 2 3 4 4 4 4 4 5 3 3 2 1 2 3 2 2 2 3 3 3 1 -3 -4 -5 -6 -2 1 1 1 -1 -2 -4 -5 -2 -2 -3 -3 -3 -4 -5 -6 -7 -6
4 3 3 4 4 4 4 4 4 4 4 1 3 3 2 1 2 3 3 2 1 -2 -4 -4 -2 1 1 1 0 -2 -3 -3 -4 -3 -2 -4 -4 -3 -4 -4 -3 -4 -5 -8
2 3 2 1 -0 3 3 2 1 2 -0 2 3 2 1 2 2 3 2 0 -2 -4 -1 1 1 1 1 0 -1 -2 -2 -1 -1 -2 -2 -3 -4 -6 -7 -7 -8 -9 -10 -11
2 2 4 0 -1 -0 1 0 -0 0 1 3 2 1 1 2 3 2 1 -2 -2 -0 -2 -8 -9 -8 -5 -2 -2 -2 -3 -2 -2 -5 -6 -6 -7 -6 -8 -10 -11 -12 -12 -12
5 4 2 2 -1 0 1 1 0 1 3 2 1 2 1 2 2 1 -5 -1 -1 -6 -9 -10 -5 -4 -3 -2 -2 -4 -6 -6 -6 -6 -7 -8 -10 -11 -12 -12 -12 -11 -12 -13
3 5 5 1 -3 2 1 3 0 3 1 1 2 3 2 3 1 -3 -2 -1 -8 -9 -8 -6 -4 -3 -3 -3 -3 -4 -7 -6 -7 -9 -10 -12 -13 -13 -12 -11 -11 -12 -13 -13
4 5 3 -0 -1 -1 2 2 2 0 1 1 2 3 1 -2 -6 -2 -1 -6 -9 -8 -6 -4 -3 -2 -2 -3 -3 -4 -5 -6 -7 -8 -9 -10 -13 -12 -12 -12 -12 -13 -14 -14
1 3 3 -2 -0 1 0 0 2 2 2 3 2 1 -2 -8 -6 -2 -3 -6 -9 -9 -7 -5 -5 -4 -3 -4 -4 -5 -7 -7 -8 -8 -12 -13 -13 -12 -12 -12 -13 -13 -13 -14
2 1 -1 -1 -1 -0 -0 1 2 2 4 2 1 -4 -9 -7 -3 -2 -4 -8 -9 -9 -4 -5 -5 -6 -7 -7 -6 -7 -7 -8 -9 -13 -13 -12 -11 -11 -11 -11 -12 -12 -13 -13
2 1 0 1 1 2 2 3 4 3 1 -1 -4 -8 -5 -3 -1 -3 -5 -8 -9 -8 -4 -6 -7 -8 -8 -7 -6 -7 -8 -11 -12 -12 -12 -10 -10 -10 -11 -11 -12 -12 -13 -13
3 2 3 3 2 3 4 3 2 0 -1 -3 -7 -7 -4 -3 -2 -3 -5 -8 -8 -6 -5 -6 -6 -7 -7 -7 -8 -11 -12 -11 -11 -12 -11 -10 -9 -10 -11 -11 -12 -12 -13 -14
4 1 3 3 4 3 2 -1 -3 -5 -6 -6 -4 -4 -5 -5 -4 -5 -5 -7 -8 -8 -7 -6 -5 -6 -9 -9 -9 -12 -11 -10 -10 -11 -11 -10 -10 -11 -11 -11 -12 -12 -13 -14
3 3 4 3 2 1 -1 -4 -7 -12 -15 -14 -9 -7 -7 -5 -5 -4 -4 -5 -7 -7 -7 -10 -9 -9 -11 -11 -11 -11 -9 -9 -8 -10 -10 -10 -11 -11 -11 -12 -13 -14 -15 -15
2 3 2 2 0 -5 -11 -11 -10 -10 -14 -17 -13 -11 -9 -9 -8 -5 -4 -4 -6 -7 -13 -12 -13 -13 -13 -12 -11 -9 -7 -8 -8 -9 -10 -10 -11 -11 -12 -12 -13 -15 -15 -15
1 1 -1 -5 -9 -9 -6 -7 -11 -14 -16 -16 -13 -10 -8 -7 -5 -4 -3 -3 -4 -5 -11 -10 -13 -13 -13 -11 -7 -7 -7 -8 -9 -10 -10 -10 -11 -12 -12 -13 -13 -14 -15 -16
-4 -5 -4 -4 -4 -6 -10 -10 -8 -12 -13 -10 -8 -7 -5 -5 -5 -6 -4 -3 -4 -6 -8 -9 -13 -12 -9 -7 -8 -9 -9 -8 -9 -10 -10 -10 -11 -12 -13 -13 -14 -14 -14 -15
-3 -3 -6 -10 -10 -9 -8 -8 -7 -9 -10 -12 -9 -6 -6 -5 -4 -6 -5 -4 -4 -8 -7 -11 -11 -8 -9 -12 -13 -10 -9 -9 -9 -9 -10 -11 -11 -12 -13 -13 -14 -14 -14 -15
-10 -12 -13 -12 -10 -9 -10 -10 -8 -8 -8 -8 -8 -7 -5 -4 -5 -5 -5 -5 -6 -6 -9 -10 -9 -11 -13 -12 -11 -9 -10 -9 -9 -9 -10 -11 -11 -12 -13 -14 -14 -15 -15 -15
-14 -13 -12 -10 -10 -10 -11 -11 -9 -8 -8 -8 -6 -6 -6 -6 -6 -6 -5 -5 -6 -7 -8 -8 -11 -14 -12 -10 -9 -10 -9 -9 -9 -10 -10 -11 -12 -12 -13 -14 -14 -15 -15 -16
-11 -11 -10 -10 -10 -10 -8 -8 -7 -7 -7 -6 -5 -6 -6 -6 -5 -5 -5 -6 -6 -7 -8 -11 -14 -12 -10 -10 -10 -9 -9 -9 -10 -11 -11 -11 -12 -12 -13 -15 -15 -15 -16 -17
-9 -9 -10 -10 -10 -10 -9 -7 -6 -5 -5 -5 -6 -7 -6 -6 -4 -5 -6 -6 -7 -8 -10 -10 -10 -10 -10 -10 -10 -10 -10 -10 -10 -11 -11 -11 -12 -12 -12 -13 -15 -16 -16 -19
-8 -9 -9 -9 -8 -8 -8 -8 -5 -5 -5 -5 -6 -5 -5 -5 -5 -6 -6 -7 -7 -7 -9 -9 -10 -10 -10 -10 -11 -10 -10 -10 -10 -11 -11 -11 -11 -12 -12 -13 -14 -15 -16 -22
-9 -9 -8 -8 -8 -8 -8 -7 -7 -6 -6 -6 -5 -5 -5 -6 -6 -6 -7 -7 -7 -8 -9 -9 -10 -10 -10 -10 -10 -11 -11 -11 -11 -11 -11 -11 -11 -11 -12 -12 -13 -16 -19 -27
-8 -8 -8 -8 -8 -9 -7 -7 -6 -6 -6 -6 -5 -6 -6 -6 -7 -8 -7 -7 -9 -11 -10 -10 -10 -10 -10 -10 -10 -10 -10 -11 -11 -11 -11 -11 -11 -11 -11 -12 -13 -17 -19 -28
-7 -8 -9 -9 -9 -8 -6 -7 -7 -6 -6 -6 -6 -6 -6 -6 -7 -7 -7 -7 -9 -9 -9 -9 -10 -10 -10 -10 -10 -10 -10 -10 -10 -10 -11 -10 -10 -11 -11 -12 -12 -17 -21 -30
-8 -8 -9 -9 -9 -7 -6 -6 -6 -7 -6 -6 -6 -6 -6 -7 -6 -7 -7 -7 -8 -9 -10 -10 -10 -10 -10 -11 -11 -11 -10 -10 -10 -11 -11 -10 -10 -11 -11 -11 -12 -15 -20 -26
-8 -7 -7 -9 -8 -7 -6 -6 -6 -6 -6 -6 -6 -6 -7 -7 -6 -7 -7 -8 -8 -9 -10 -10 -10 -10 -11 -11 -11 -11 -11 -11 -10 -10 -11 -11 -10 -10 -11 -11 -12 -12 -16 -22

GFSNGP_850_dewp_021.txt.gz
Dewpoint
3 2 3 3 4 3 4 4 5 3 3 1 0 1 2 1 0 2 2 3 2 -0 -2 -2 -1 -4 -9 -10 -8 -3 -1 -3 -2 -2 -2 -3 -4 -3 -4 -5 -6 -6 -4 -4
5 3 3 4 3 3 4 4 4 4 4 1 1 3 2 2 1 2 3 1 -0 -1 -3 -2 -7 -10 -8 -6 -4 -2 -3 -2 -2 -2 -2 -2 -4 -7 -6 -6 -7 -8 -9 -10
4 2 2 3 -0 2 2 2 3 3 -0 1 3 2 1 1 2 2 2 -1 -3 -2 -3 -9 -10 -9 -7 -6 -5 -4 -4 -4 -3 -5 -6 -6 -6 -6 -7 -9 -10 -10 -11 -12
5 3 5 -0 -1 -0 1 0 -0 -0 -0 0 2 1 1 2 2 2 -1 -5 -4 -2 -8 -11 -10 -8 -5 -4 -3 -4 -5 -6 -6 -6 -7 -8 -10 -12 -13 -14 -13 -12 -12 -12
5 5 3 2 -1 -0 2 1 -1 0 2 2 1 2 2 2 2 -1 -5 -4 -1 -5 -8 -10 -10 -6 -4 -2 -3 -4 -4 -7 -5 -7 -8 -9 -9 -10 -13 -13 -13 -13 -13 -13
5 6 6 2 -2 2 1 3 0 2 1 1 2 4 3 2 1 -5 -5 -1 -2 -5 -9 -10 -9 -6 -5 -4 -4 -3 -4 -5 -7 -8 -8 -8 -11 -13 -13 -12 -12 -12 -13 -13
4 4 4 1 -1 -1 4 3 1 1 1 2 2 2 1 0 -8 -4 -3 -1 -3 -6 -9 -9 -6 -7 -7 -7 -6 -5 -5 -7 -7 -8 -8 -13 -13 -13 -12 -12 -11 -11 -12 -12
3 4 4 -2 -0 2 1 0 2 2 2 2 2 1 -1 -5 -5 -6 -4 -1 -3 -7 -8 -8 -6 -6 -7 -8 -8 -7 -7 -7 -7 -9 -13 -13 -12 -11 -10 -11 -11 -11 -12 -12
2 3 -1 -1 -1 -1 0 3 3 3 2 1 -0 -4 -6 -7 -8 -6 -3 -2 -4 -6 -8 -8 -7 -7 -8 -8 -7 -7 -7 -8 -10 -12 -12 -12 -11 -10 -10 -11 -11 -11 -11 -11
2 1 1 1 1 2 3 3 3 2 0 -0 -3 -7 -6 -8 -7 -8 -7 -3 -4 -5 -7 -8 -8 -7 -6 -7 -7 -8 -9 -11 -11 -10 -11 -11 -11 -10 -10 -10 -11 -11 -11 -12
3 3 2 2 3 4 3 2 1 -2 -4 -6 -9 -10 -12 -10 -7 -5 -4 -4 -4 -4 -6 -7 -7 -6 -5 -6 -8 -9 -9 -11 -10 -9 -9 -10 -10 -10 -11 -10 -11 -12 -12 -12
4 2 3 3 2 2 1 -1 -7 -8 -11 -11 -12 -13 -12 -12 -11 -9 -9 -8 -5 -3 -4 -6 -7 -9 -10 -9 -10 -10 -11 -10 -9 -8 -9 -10 -11 -11 -11 -12 -12 -13 -14 -14
3 3 4 2 1 -1 -6 -10 -8 -8 -11 -14 -17 -15 -12 -11 -10 -9 -9 -6 -4 -3 -3 -5 -6 -10 -10 -12 -12 -12 -10 -9 -7 -8 -9 -10 -11 -11 -11 -13 -14 -15 -15 -16
2 2 1 0 -1 -8 -7 -7 -8 -11 -12 -13 -15 -15 -13 -10 -10 -9 -7 -6 -6 -5 -4 -3 -5 -8 -8 -12 -12 -10 -8 -7 -8 -9 -10 -10 -10 -11 -12 -13 -14 -15 -15 -16
-0 1 -1 -5 -5 -5 -8 -10 -11 -11 -10 -9 -9 -10 -11 -9 -8 -7 -5 -4 -6 -6 -4 -4 -6 -6 -10 -11 -8 -8 -8 -9 -8 -9 -10 -10 -10 -11 -12 -13 -14 -15 -16 -17
-3 -4 -4 -5 -11 -13 -13 -12 -11 -10 -9 -6 -6 -8 -8 -8 -8 -6 -6 -6 -6 -6 -5 -5 -6 -7 -9 -8 -9 -12 -11 -9 -9 -9 -9 -10 -10 -11 -12 -14 -15 -15 -15 -16
-6 -14 -17 -17 -15 -13 -10 -10 -10 -10 -10 -10 -10 -9 -8 -7 -6 -6 -7 -7 -5 -5 -5 -7 -6 -8 -8 -10 -11 -11 -10 -10 -9 -9 -9 -10 -11 -11 -12 -14 -15 -15 -16 -16
-14 -14 -12 -11 -10 -10 -11 -11 -11 -9 -8 -8 -8 -7 -7 -6 -6 -7 -7 -7 -5 -5 -6 -7 -7 -8 -10 -11 -11 -10 -10 -10 -9 -9 -10 -10 -11 -12 -12 -14 -17 -16 -18 -18
-13 -12 -12 -11 -11 -11 -11 -10 -9 -8 -9 -7 -6 -5 -5 -5 -6 -7 -6 -5 -5 -6 -7 -7 -7 -9 -12 -10 -10 -10 -10 -9 -9 -10 -10 -11 -11 -12 -12 -13 -16 -17 -19 -21
-13 -12 -10 -10 -11 -10 -9 -9 -8 -8 -8 -6 -6 -6 -6 -6 -6 -5 -5 -6 -6 -7 -7 -8 -10 -11 -10 -10 -10 -10 -11 -10 -10 -11 -11 -11 -11 -11 -12 -12 -14 -17 -18 -20
-12 -9 -9 -9 -9 -9 -9 -9 -9 -8 -7 -7 -6 -6 -6 -6 -5 -6 -6 -6 -6 -7 -8 -9 -10 -10 -10 -10 -11 -10 -11 -11 -11 -11 -11 -11 -11 -11 -12 -12 -13 -15 -17 -21
-9 -8 -8 -8 -8 -9 -10 -10 -9 -7 -7 -7 -6 -6 -6 -6 -6 -6 -7 -7 -6 -7 -8 -8 -10 -10 -10 -10 -11 -11 -11 -11 -11 -11 -11 -11 -11 -11 -11 -12 -12 -14 -17 -22
-7 -8 -8 -8 -8 -9 -11 -10 -9 -8 -8 -7 -6 -6 -6 -6 -6 -6 -7 -7 -7 -7 -8 -10 -10 -10 -10 -10 -11 -11 -11 -11 -11 -11 -11 -11 -11 -11 -11 -11 -12 -13 -17 -21
-8 -8 -8 -8 -8 -8 -10 -11 -8 -7 -7 -7 -6 -6 -6 -7 -7 -7 -7 -6 -8 -10 -10 -10 -10 -10 -10 -10 -11 -11 -11 -11 -11 -10 -10 -11 -11 -11 -11 -11 -11 -12 -16 -20
-7 -8 -8 -8 -8 -8 -9 -9 -7 -7 -7 -7 -6 -6 -6 -6 -6 -6 -6 -7 -8 -8 -9 -9 -10 -10 -10 -10 -11 -11 -11 -11 -11 -10 -11 -11 -11 -11 -11 -11 -11 -12 -13 -19
-8 -9 -9 -7 -6 -6 -8 -7 -6 -7 -7 -7 -6 -6 -6 -6 -6 -7 -7 -8 -8 -9 -9 -10 -10 -10 -10 -11 -11 -11 -11 -12 -12 -11 -11 -11 -11 -11 -11 -11 -11 -12 -12 -14
-9 -9 -8 -7 -6 -6 -7 -7 -6 -6 -6 -7 -6 -6 -6 -6 -6 -7 -7 -7 -8 -8 -9 -10 -10 -11 -11 -11 -11 -11 -12 -12 -13 -12 -11 -11 -11 -11 -10 -10 -11 -11 -12 -13

GFSNGP_850_dewp_024.txt.gz
Dewpoint
0 -1 -1 0 1 -0 1 2 4 2 -1 -2 -2 -2 -1 1 1 0 1 1 2 0 -2 -2 -4 -6 -5 -4 -3 -2 -2 -3 -2 -1 -2 -2 -2 -3 -3 -3 -4 -4 -6 -7
4 1 0 2 0 0 1 1 1 1 2 -2 -2 -1 1 1 1 1 1 2 1 -2 -2 -3 -5 -5 -4 -3 -2 -2 -3 -3 -2 -2 -3 -3 -3 -4 -6 -7 -8 -8 -9 -8
8 2 3 6 1 -0 0 -0 1 2 -1 -2 -1 0 1 1 1 2 2 1 -2 -2 -2 -4 -4 -5 -4 -3 -3 -3 -3 -4 -4 -5 -5 -6 -7 -8 -8 -8 -9 -9 -9 -9
7 6 8 1 -2 -1 -0 -1 -2 -2 -2 -0 0 1 1 2 2 2 0 -2 -3 -2 -3 -4 -5 -6 -4 -4 -3 -3 -4 -4 -5 -5 -6 -7 -7 -7 -8 -9 -9 -9 -9 -9
7 5 1 0 -2 -1 0 1 -1 -0 0 1 1 2 2 2 2 1 -3 -2 -1 -2 -3 -3 -5 -6 -5 -5 -5 -4 -4 -4 -4 -5 -7 -7 -7 -9 -9 -9 -9 -9 -9 -9
5 7 5 -1 -2 0 0 2 1 1 2 2 3 4 4 1 1 -1 -2 -3 -2 -2 -3 -4 -6 -5 -6 -7 -7 -6 -6 -6 -6 -6 -7 -7 -9 -9 -9 -10 -10 -9 -8 -9
5 6 4 -1 -1 -1 5 4 1 1 3 3 3 3 1 -0 -2 -3 -4 -3 -3 -3 -3 -4 -4 -5 -6 -7 -8 -8 -7 -6 -7 -6 -7 -10 -9 -10 -10 -9 -8 -9 -9 -10
5 6 6 -1 -0 4 2 2 2 3 3 3 2 1 -2 -2 -4 -6 -8 -9 -5 -3 -4 -5 -4 -5 -6 -7 -7 -7 -6 -6 -7 -7 -9 -9 -9 -9 -9 -9 -9 -9 -10 -10
2 3 -1 -1 0 1 3 3 4 3 1 1 -0 -2 -3 -5 -6 -7 -6 -5 -4 -5 -5 -4 -4 -4 -5 -6 -6 -6 -6 -7 -7 -8 -8 -8 -8 -9 -9 -9 -9 -10 -10 -10
3 0 -0 1 2 4 3 3 2 1 1 -3 -4 -6 -6 -8 -8 -7 -7 -7 -7 -7 -6 -6 -5 -4 -4 -4 -5 -7 -7 -7 -8 -8 -8 -8 -8 -9 -9 -9 -10 -10 -10 -11
2 2 2 2 4 3 2 1 -1 -4 -5 -5 -5 -7 -10 -11 -11 -10 -8 -8 -7 -6 -6 -5 -5 -4 -5 -5 -6 -7 -7 -7 -8 -8 -7 -7 -8 -9 -9 -10 -11 -11 -11 -12
5 3 4 3 2 1 1 -4 -6 -7 -6 -7 -10 -11 -11 -11 -11 -9 -8 -7 -6 -6 -6 -6 -6 -5 -5 -6 -7 -7 -7 -7 -7 -8 -7 -8 -8 -9 -9 -10 -12 -14 -15 -15
3 4 3 2 1 -3 -5 -6 -7 -7 -8 -10 -10 -10 -9 -10 -10 -9 -8 -7 -7 -6 -6 -6 -5 -4 -5 -6 -6 -11 -11 -9 -8 -8 -8 -8 -9 -9 -9 -10 -11 -12 -13 -15
3 2 1 -0 -1 -4 -5 -6 -7 -10 -10 -9 -9 -8 -8 -8 -9 -8 -8 -7 -5 -5 -6 -5 -6 -5 -6 -6 -8 -11 -9 -8 -9 -8 -9 -9 -9 -10 -10 -10 -11 -11 -12 -13
1 1 0 -3 -4 -5 -8 -10 -10 -11 -10 -10 -10 -9 -8 -7 -7 -7 -6 -5 -5 -5 -5 -5 -5 -6 -6 -7 -8 -7 -8 -9 -9 -9 -9 -9 -10 -10 -10 -11 -11 -11 -12 -12
-3 -4 -7 -8 -11 -11 -11 -11 -10 -9 -9 -9 -8 -7 -6 -6 -5 -5 -5 -5 -6 -5 -5 -5 -6 -7 -7 -7 -7 -8 -9 -9 -9 -9 -9 -9 -10 -10 -11 -11 -11 -12 -12 -13
-4 -10 -11 -10 -11 -10 -9 -8 -8 -9 -8 -7 -7 -8 -8 -6 -7 -5 -5 -5 -6 -6 -5 -5 -7 -7 -7 -8 -10 -9 -9 -9 -9 -9 -9 -10 -10 -10 -11 -11 -12 -12 -12 -14
-9 -10 -10 -10 -9 -8 -8 -8 -7 -8 -8 -9 -9 -9 -7 -7 -6 -6 -6 -5 -5 -5 -6 -6 -7 -7 -8 -10 -11 -10 -10 -9 -9 -9 -10 -10 -10 -11 -11 -12 -12 -12 -13 -14
-10 -10 -10 -8 -7 -7 -8 -9 -10 -9 -10 -10 -9 -8 -7 -7 -6 -6 -6 -6 -6 -6 -6 -7 -7 -8 -11 -12 -10 -10 -10 -10 -10 -10 -10 -10 -10 -11 -11 -11 -12 -12 -13 -14
-12 -10 -8 -8 -9 -9 -10 -10 -9 -10 -10 -9 -8 -7 -7 -6 -6 -6 -7 -6 -6 -6 -7 -7 -9 -11 -11 -10 -10 -10 -10 -10 -10 -10 -10 -10 -10 -11 -11 -11 -12 -13 -13 -14
-14 -12 -10 -9 -9 -9 -9 -9 -10 -10 -10 -9 -7 -7 -7 -7 -6 -6 -7 -6 -7 -7 -7 -8 -9 -9 -10 -10 -10 -10 -10 -10 -10 -10 -10 -10 -10 -10 -11 -11 -12 -12 -13 -14
-12 -10 -8 -8 -8 -8 -9 -9 -8 -9 -10 -9 -8 -7 -7 -7 -6 -6 -7 -7 -7 -7 -7 -8 -9 -10 -10 -10 -9 -10 -10 -10 -10 -10 -10 -10 -10 -10 -11 -11 -11 -12 -13 -14
-9 -8 -8 -8 -8 -9 -9 -9 -10 -10 -10 -9 -7 -7 -7 -6 -6 -7 -6 -7 -7 -7 -8 -8 -9 -10 -10 -10 -10 -10 -10 -10 -10 -10 -10 -10 -10 -10 -11 -11 -11 -11 -12 -13
-9 -8 -7 -8 -9 -9 -9 -9 -8 -8 -9 -8 -8 -7 -7 -6 -6 -6 -7 -7 -7 -8 -8 -8 -9 -9 -10 -10 -10 -10 -10 -11 -10 -10 -10 -10 -10 -10 -10 -11 -11 -11 -12 -13
-8 -7 -7 -9 -9 -6 -6 -5 -6 -6 -8 -8 -6 -6 -6 -6 -6 -6 -7 -7 -7 -8 -8 -9 -9 -10 -10 -10 -10 -10 -10 -11 -11 -12 -12 -11 -10 -10 -10 -10 -11 -11 -12 -12
-7 -7 -8 -8 -8 -7 -6 -6 -6 -7 -7 -7 -7 -6 -6 -6 -6 -6 -7 -7 -7 -8 -8 -8 -9 -9 -10 -10 -10 -11 -11 -12 -12 -13 -13 -12 -12 -11 -11 -11 -10 -11 -11 -12
-8 -9 -9 -7 -6 -5 -6 -6 -7 -7 -7 -7 -7 -6 -7 -6 -6 -6 -6 -6 -7 -7 -8 -9 -9 -10 -10 -10 -11 -11 -11 -12 -13 -14 -14 -14 -13 -11 -11 -10 -10 -11 -11 -12

GFSNGP_850_dewp_027.txt.gz
Dewpoint
-0 -3 -4 -3 -2 -2 -1 -1 3 1 -0 -2 -2 -2 -2 -2 -0 -0 -0 -0 1 1 0 -2 -3 -5 -6 -6 -5 -4 -4 -4 -4 -3 -2 -3 -3 -3 -3 -4 -6 -7 -8 -9
3 -1 -4 -2 -3 -2 -2 -1 -1 -1 -1 -2 -2 -3 -2 -1 -1 -0 0 1 2 -0 -2 -2 -5 -5 -6 -6 -5 -4 -4 -5 -4 -4 -4 -4 -4 -5 -6 -6 -6 -8 -10 -10
7 3 3 7 2 -3 -2 -2 -2 1 -1 -3 -2 -1 0 1 1 2 3 2 -1 -2 -1 -2 -5 -5 -7 -7 -6 -5 -5 -6 -5 -5 -5 -5 -5 -6 -7 -7 -10 -10 -10 -10
8 6 8 -2 -4 -3 -2 -2 -3 -3 -2 -2 -1 1 2 2 2 2 2 -0 -1 -1 -2 -5 -4 -5 -7 -7 -8 -7 -7 -6 -6 -5 -5 -6 -7 -8 -9 -10 -10 -10 -10 -10
8 5 0 -1 -1 -1 0 1 -2 -1 -0 -1 0 1 1 2 2 2 0 -1 -1 -2 -4 -4 -5 -5 -6 -7 -8 -9 -8 -7 -6 -5 -7 -8 -8 -9 -10 -10 -10 -11 -10 -8
6 7 6 -1 -3 -1 -1 3 0 1 1 1 2 5 3 3 2 0 -1 -2 -5 -6 -6 -5 -5 -5 -6 -6 -8 -9 -9 -8 -7 -7 -7 -8 -9 -10 -10 -11 -11 -9 -8 -8
6 7 3 -2 -1 -1 4 5 2 2 4 3 3 3 2 2 0 -1 -4 -6 -8 -9 -7 -6 -6 -6 -7 -7 -8 -9 -8 -7 -6 -7 -8 -9 -10 -10 -11 -11 -9 -7 -9 -10
6 7 6 -1 -1 4 3 2 4 3 3 2 2 2 0 -1 -4 -6 -7 -8 -8 -8 -8 -8 -8 -8 -8 -7 -8 -7 -6 -6 -6 -7 -8 -10 -10 -10 -10 -10 -8 -8 -9 -10
4 4 -1 -1 1 3 3 4 3 3 0 1 0 -2 -5 -6 -7 -9 -10 -11 -11 -10 -10 -10 -9 -9 -9 -6 -4 -3 -5 -6 -6 -6 -9 -10 -10 -10 -10 -9 -8 -9 -9 -10
3 0 -1 0 2 4 3 3 2 -1 1 -2 -5 -5 -7 -10 -11 -12 -13 -12 -12 -11 -10 -10 -10 -10 -10 -8 -4 -4 -6 -5 -5 -7 -9 -9 -9 -10 -9 -8 -9 -9 -10 -10
3 1 2 4 4 3 2 2 -3 -4 -5 -5 -6 -8 -10 -12 -12 -13 -12 -13 -12 -11 -10 -10 -10 -10 -9 -9 -5 -5 -5 -5 -6 -8 -8 -7 -8 -9 -9 -9 -9 -10 -11 -11
5 4 4 4 3 2 2 -3 -5 -6 -6 -7 -9 -11 -11 -11 -11 -11 -11 -11 -11 -11 -10 -9 -9 -8 -7 -5 -5 -5 -5 -6 -7 -7 -7 -7 -8 -8 -8 -9 -10 -11 -11 -12
3 3 3 3 2 1 -2 -4 -6 -6 -9 -11 -11 -11 -11 -11 -11 -10 -10 -10 -10 -9 -7 -7 -6 -6 -5 -7 -6 -6 -7 -7 -7 -7 -7 -8 -8 -8 -9 -9 -10 -11 -11 -11
2 2 2 2 1 -2 -4 -5 -8 -10 -11 -12 -11 -11 -11 -11 -9 -8 -8 -8 -7 -7 -5 -6 -5 -5 -6 -5 -6 -7 -8 -8 -7 -8 -8 -8 -8 -9 -9 -9 -10 -10 -10 -11
2 2 1 -0 -3 -5 -8 -10 -11 -11 -11 -11 -11 -10 -8 -7 -7 -7 -6 -6 -5 -5 -5 -5 -5 -6 -6 -7 -7 -7 -7 -8 -8 -9 -8 -9 -9 -9 -9 -10 -10 -10 -10 -11
-1 -3 -5 -8 -9 -10 -11 -10 -10 -10 -10 -10 -8 -7 -6 -7 -6 -5 -5 -5 -5 -5 -5 -5 -6 -6 -7 -7 -7 -8 -8 -8 -9 -9 -9 -9 -9 -9 -9 -10 -11 -10 -11 -11
-3 -7 -8 -9 -10 -10 -10 -9 -9 -9 -8 -7 -7 -9 -11 -10 -9 -6 -6 -6 -6 -5 -5 -5 -6 -6 -8 -8 -8 -8 -8 -9 -9 -9 -9 -9 -9 -9 -10 -10 -10 -11 -11 -12
-8 -8 -10 -10 -10 -9 -8 -7 -7 -7 -7 -8 -11 -11 -11 -9 -8 -7 -7 -7 -7 -7 -6 -7 -7 -7 -8 -8 -9 -9 -9 -9 -9 -9 -9 -9 -9 -10 -10 -10 -11 -11 -11 -12
-9 -10 -10 -10 -9 -7 -7 -7 -7 -8 -10 -11 -11 -11 -10 -8 -8 -7 -7 -7 -6 -6 -6 -7 -7 -7 -9 -9 -11 -9 -9 -9 -9 -9 -9 -9 -10 -10 -10 -10 -11 -11 -11 -12
-11 -11 -11 -9 -9 -10 -9 -9 -9 -9 -10 -9 -10 -10 -9 -7 -8 -7 -7 -6 -6 -7 -7 -7 -8 -10 -10 -9 -10 -10 -9 -9 -9 -9 -10 -10 -10 -10 -10 -10 -11 -11 -12 -12
-13 -12 -10 -13 -11 -9 -9 -9 -10 -11 -10 -9 -9 -9 -8 -7 -7 -7 -6 -6 -7 -8 -8 -8 -9 -8 -8 -9 -9 -9 -10 -10 -9 -9 -10 -10 -10 -10 -10 -10 -11 -11 -12 -12
-9 -9 -9 -11 -10 -9 -9 -10 -10 -9 -9 -9 -9 -6 -6 -6 -7 -6 -6 -6 -7 -8 -7 -8 -8 -8 -9 -10 -9 -9 -9 -10 -10 -10 -10 -10 -10 -10 -10 -10 -11 -11 -11 -12
-9 -8 -7 -8 -7 -8 -9 -9 -9 -7 -7 -6 -6 -6 -6 -6 -6 -6 -6 -6 -7 -7 -7 -7 -8 -8 -9 -10 -10 -10 -10 -10 -10 -10 -10 -10 -10 -10 -10 -10 -10 -11 -11 -11
-7 -6 -7 -8 -7 -8 -9 -6 -5 -4 -5 -5 -7 -6 -6 -6 -6 -6 -6 -6 -7 -7 -7 -8 -8 -8 -9 -10 -10 -10 -10 -10 -10 -10 -10 -10 -10 -10 -10 -10 -10 -11 -11 -11
-7 -9 -8 -6 -6 -6 -6 -6 -5 -5 -5 -6 -6 -6 -6 -6 -7 -6 -6 -6 -7 -7 -8 -8 -8 -9 -9 -9 -10 -9 -10 -10 -10 -10 -10 -10 -10 -10 -10 -10 -10 -11 -11 -11
-6 -5 -6 -6 -6 -5 -5 -5 -5 -5 -6 -6 -6 -7 -7 -7 -7 -7 -7 -6 -7 -7 -7 -7 -8 -8 -9 -9 -9 -9 -10 -10 -11 -11 -11 -12 -12 -11 -10 -10 -10 -10 -11 -11
-5 -6 -5 -5 -6 -5 -5 -5 -6 -6 -6 -7 -7 -7 -7 -7 -7 -7 -7 -6 -6 -6 -6 -7 -7 -8 -9 -9 -9 -10 -10 -10 -11 -11 -13 -14 -14 -14 -13 -12 -11 -11 -11 -11

GFSNGP_850_dewp_030.txt.gz
Dewpoint
-0 -3 -4 -5 -5 -5 -4 -1 2 1 -1 -2 -1 -2 -2 1 1 0 1 2 2 2 0 -1 -1 -2 -4 -5 -6 -6 -5 -4 -4 -4 -3 -5 -5 -4 -4 -5 -5 -6 -7 -9
4 -2 -3 -3 -4 -2 -3 -3 -3 -1 -1 -3 -3 0 1 1 2 1 3 3 2 -0 -1 -1 -1 -3 -4 -5 -7 -7 -7 -6 -5 -5 -5 -4 -4 -5 -5 -6 -6 -8 -10 -10
8 4 4 8 4 -2 -3 -3 -1 2 -1 -3 -0 1 2 2 2 2 2 2 1 -0 -1 -1 -1 -4 -5 -5 -6 -7 -8 -7 -7 -4 -5 -6 -6 -5 -6 -7 -9 -10 -10 -10
7 6 7 -2 -4 -3 -2 -2 -2 -2 -2 0 0 1 1 2 2 2 1 0 -0 -1 -1 -1 -4 -5 -5 -5 -6 -6 -7 -8 -9 -6 -6 -6 -5 -7 -7 -9 -10 -10 -10 -10
9 6 2 -1 -1 0 1 1 -2 1 2 2 2 2 1 2 1 1 1 -0 -1 -2 -5 -7 -8 -6 -4 -5 -6 -6 -6 -8 -7 -7 -6 -6 -7 -7 -8 -10 -10 -11 -10 -10
7 6 6 1 -3 -1 -2 3 3 3 3 3 3 4 2 2 1 -1 -1 -3 -6 -7 -8 -8 -8 -9 -9 -8 -8 -8 -6 -5 -5 -4 -5 -6 -5 -6 -10 -10 -10 -10 -10 -9
5 6 4 -1 -2 -1 3 5 4 3 3 3 2 2 2 -0 -2 -2 -5 -7 -9 -10 -11 -11 -11 -10 -10 -10 -10 -7 -7 -3 -5 -4 -4 -6 -6 -9 -10 -10 -10 -9 -9 -10
6 6 6 -1 1 5 4 3 4 3 3 1 1 1 -1 -4 -5 -7 -10 -11 -12 -13 -12 -12 -11 -11 -10 -10 -10 -9 -6 -5 -4 -4 -5 -6 -8 -9 -10 -10 -9 -9 -9 -11
5 5 0 1 4 4 4 4 3 2 1 1 -1 -4 -5 -6 -9 -11 -12 -13 -13 -13 -13 -12 -11 -10 -10 -10 -9 -7 -5 -4 -4 -4 -5 -6 -7 -9 -10 -9 -9 -9 -10 -10
4 1 -0 3 4 3 3 3 2 -1 -0 -4 -5 -5 -8 -10 -11 -11 -11 -11 -11 -11 -11 -11 -10 -10 -10 -9 -8 -9 -5 -4 -5 -6 -6 -7 -8 -9 -9 -9 -10 -10 -9 -10
2 0 0 4 4 3 3 2 -2 -3 -5 -6 -7 -8 -10 -10 -11 -11 -12 -11 -11 -10 -10 -10 -10 -9 -8 -7 -6 -6 -6 -5 -6 -6 -6 -7 -7 -9 -8 -9 -9 -9 -10 -11
5 4 4 4 3 3 1 -1 -4 -5 -6 -8 -10 -11 -11 -11 -11 -11 -10 -9 -9 -9 -8 -8 -7 -6 -7 -5 -5 -6 -6 -6 -6 -6 -7 -8 -9 -9 -9 -9 -9 -9 -11 -11
3 4 4 3 2 1 -1 -4 -5 -6 -9 -10 -11 -10 -11 -11 -11 -9 -8 -8 -8 -7 -6 -6 -6 -5 -4 -5 -7 -6 -6 -7 -7 -7 -8 -8 -9 -8 -9 -9 -10 -10 -11 -10
3 2 2 2 1 -0 -2 -5 -8 -10 -11 -11 -11 -11 -10 -8 -8 -8 -8 -7 -6 -6 -6 -6 -5 -4 -4 -5 -6 -6 -7 -8 -7 -7 -8 -8 -9 -9 -9 -9 -10 -10 -11 -10
3 2 2 1 -0 -4 -7 -10 -10 -10 -11 -10 -10 -9 -7 -7 -7 -7 -7 -6 -8 -7 -6 -6 -6 -5 -5 -6 -7 -7 -7 -7 -8 -9 -9 -9 -9 -9 -9 -10 -10 -11 -11 -10
1 -1 -3 -5 -8 -9 -10 -10 -10 -10 -10 -9 -8 -7 -8 -11 -11 -11 -9 -8 -8 -7 -7 -7 -6 -6 -6 -6 -7 -7 -8 -7 -8 -9 -9 -9 -9 -9 -10 -10 -10 -11 -11 -11
-1 -5 -7 -8 -8 -9 -9 -9 -8 -7 -7 -7 -7 -10 -11 -12 -12 -11 -9 -9 -7 -7 -7 -6 -6 -7 -7 -7 -7 -8 -8 -8 -9 -9 -9 -9 -9 -10 -10 -10 -10 -11 -11 -11
-5 -7 -8 -9 -9 -9 -9 -7 -7 -7 -7 -8 -10 -11 -11 -11 -10 -10 -9 -8 -7 -7 -6 -6 -7 -8 -8 -8 -8 -9 -9 -9 -9 -9 -9 -9 -10 -10 -10 -10 -11 -11 -11 -11
-8 -9 -9 -10 -9 -8 -9 -11 -10 -9 -10 -11 -11 -11 -9 -9 -9 -9 -8 -7 -6 -6 -6 -8 -8 -8 -8 -9 -9 -10 -9 -9 -9 -9 -10 -10 -10 -10 -10 -10 -10 -11 -11 -12
-9 -9 -10 -12 -14 -16 -13 -11 -10 -10 -11 -10 -9 -9 -9 -8 -6 -6 -7 -6 -6 -6 -7 -8 -9 -9 -10 -10 -9 -9 -10 -9 -9 -9 -10 -10 -10 -10 -9 -10 -11 -11 -11 -11
-8 -11 -11 -11 -15 -15 -12 -11 -9 -10 -11 -10 -8 -7 -8 -8 -6 -6 -7 -7 -6 -6 -8 -8 -8 -9 -8 -8 -9 -10 -10 -9 -10 -10 -10 -10 -10 -10 -10 -10 -10 -11 -11 -11
-10 -11 -13 -13 -12 -12 -10 -9 -9 -10 -9 -7 -6 -5 -6 -6 -6 -6 -6 -6 -6 -6 -6 -7 -7 -8 -8 -8 -9 -10 -10 -10 -10 -10 -10 -10 -10 -10 -10 -10 -11 -11 -11 -11
-16 -15 -11 -9 -7 -8 -8 -8 -9 -7 -5 -5 -5 -5 -6 -6 -6 -6 -6 -6 -7 -6 -7 -7 -7 -7 -8 -8 -9 -10 -10 -10 -10 -10 -10 -10 -10 -10 -10 -10 -10 -11 -11 -11
-9 -9 -8 -8 -10 -8 -8 -7 -6 -5 -6 -6 -5 -5 -6 -7 -7 -6 -6 -7 -7 -7 -7 -6 -7 -8 -8 -9 -9 -9 -10 -10 -10 -10 -10 -10 -10 -10 -10 -10 -11 -11 -10 -11
-10 -9 -9 -8 -6 -6 -6 -6 -6 -5 -5 -5 -6 -6 -7 -7 -7 -7 -7 -7 -7 -7 -7 -7 -7 -8 -8 -8 -8 -9 -9 -10 -10 -10 -10 -11 -11 -11 -10 -10 -10 -11 -11 -11
-7 -6 -6 -6 -6 -7 -7 -5 -4 -5 -5 -6 -6 -7 -7 -7 -7 -7 -7 -7 -7 -7 -7 -7 -7 -7 -7 -7 -8 -9 -9 -10 -10 -10 -10 -11 -11 -11 -11 -11 -11 -11 -11 -11
-6 -6 -5 -5 -6 -6 -5 -5 -5 -5 -6 -7 -8 -8 -8 -8 -8 -7 -7 -7 -7 -7 -6 -6 -6 -6 -7 -7 -8 -8 -9 -10 -10 -10 -11 -11 -12 -13 -12 -12 -11 -11 -11 -11

GFSNGP_850_dewp_033.txt.gz
Dewpoint
3 -1 -2 -3 -2 -3 -3 -2 1 1 0 0 1 2 2 2 2 2 2 2 1 1 0 -1 -2 -1 -2 -4 -4 -5 -6 -7 -7 -7 -6 -5 -4 -6 -7 -7 -5 -6 -6 -8
2 3 1 -0 -0 0 -1 -2 -0 0 1 1 1 1 2 2 2 2 2 1 0 -1 -3 -3 -2 -2 -3 -4 -5 -5 -5 -6 -7 -8 -5 -5 -4 -9 -8 -6 -6 -7 -8 -10
5 4 3 3 1 -1 -1 -1 -1 1 1 1 2 2 2 2 2 1 1 -0 -1 -3 -4 -5 -6 -6 -4 -5 -5 -4 -4 -4 -5 -5 -6 -4 -5 -5 -7 -6 -7 -9 -10 -10
2 2 -2 1 -2 -0 1 1 1 3 3 3 2 2 2 2 1 -1 -3 -4 -6 -7 -7 -6 -5 -6 -8 -8 -9 -8 -7 -7 -5 -4 -4 -3 -3 -5 -6 -7 -8 -10 -10 -10
4 4 2 1 -0 1 1 3 3 4 3 3 2 2 3 2 -3 -4 -4 -5 -5 -5 -8 -10 -11 -11 -11 -11 -11 -11 -9 -9 -8 -7 -4 -3 -3 -4 -5 -6 -11 -10 -10 -10
0 1 2 1 -0 -1 -1 3 4 3 3 3 0 1 1 -1 -4 -5 -5 -6 -10 -12 -13 -13 -12 -12 -12 -12 -11 -10 -9 -6 -6 -6 -6 -4 -5 -6 -8 -10 -10 -9 -9 -9
1 1 2 2 -1 -1 2 2 3 3 3 1 1 1 0 -4 -5 -6 -10 -11 -12 -13 -13 -13 -13 -13 -13 -10 -10 -9 -9 -8 -9 -8 -6 -4 -5 -7 -8 -9 -10 -10 -10 -9
3 3 3 0 2 1 3 4 3 2 1 1 0 -2 -4 -5 -7 -10 -11 -11 -11 -11 -11 -11 -12 -11 -10 -9 -9 -9 -8 -8 -10 -5 -4 -5 -5 -6 -7 -9 -10 -10 -9 -11
2 2 -0 1 2 4 3 3 3 1 1 -1 -2 -5 -5 -8 -10 -10 -11 -11 -11 -11 -11 -11 -10 -9 -9 -8 -8 -8 -8 -9 -8 -5 -5 -5 -6 -7 -9 -9 -10 -9 -11 -11
3 2 3 4 4 3 3 3 2 1 -2 -4 -5 -6 -9 -10 -10 -11 -11 -11 -11 -11 -9 -9 -8 -8 -7 -7 -7 -7 -8 -8 -7 -7 -6 -6 -7 -7 -8 -10 -9 -10 -10 -10
2 3 4 4 3 3 3 1 -1 -5 -5 -5 -8 -10 -10 -11 -11 -11 -11 -11 -10 -9 -8 -9 -8 -7 -6 -5 -5 -5 -6 -8 -6 -6 -6 -6 -6 -8 -9 -8 -9 -10 -10 -10
2 3 3 4 3 3 0 -2 -4 -5 -6 -8 -10 -10 -11 -11 -11 -10 -10 -12 -12 -10 -9 -8 -7 -6 -5 -4 -4 -4 -5 -7 -7 -7 -7 -7 -8 -9 -9 -9 -10 -10 -11 -11
4 4 4 3 3 1 -1 -3 -5 -6 -9 -10 -11 -11 -11 -11 -10 -11 -14 -13 -11 -8 -8 -9 -8 -7 -6 -5 -5 -5 -6 -7 -7 -8 -7 -8 -8 -9 -9 -10 -10 -11 -11 -11
3 2 2 2 1 -0 -2 -4 -8 -10 -11 -11 -10 -11 -10 -10 -14 -13 -13 -12 -10 -8 -9 -8 -7 -7 -7 -6 -6 -6 -7 -7 -7 -8 -9 -9 -9 -9 -9 -10 -10 -11 -11 -11
2 2 2 -0 -1 -3 -3 -10 -10 -10 -10 -10 -10 -10 -11 -13 -12 -12 -12 -11 -10 -8 -9 -8 -7 -7 -6 -7 -7 -7 -8 -8 -8 -8 -9 -9 -9 -9 -10 -10 -10 -11 -11 -11
2 1 -1 -2 -6 -9 -10 -10 -9 -9 -9 -9 -12 -12 -11 -11 -11 -11 -11 -10 -9 -10 -9 -7 -7 -7 -6 -7 -7 -7 -8 -8 -8 -9 -9 -9 -9 -10 -10 -10 -10 -11 -11 -11
-1 -3 -7 -8 -8 -9 -9 -9 -9 -8 -8 -12 -11 -9 -10 -11 -11 -10 -10 -9 -9 -9 -8 -7 -7 -7 -7 -8 -8 -8 -8 -8 -8 -10 -10 -10 -10 -10 -10 -10 -10 -11 -10 -10
-2 -7 -8 -9 -9 -9 -9 -9 -10 -12 -12 -11 -10 -11 -11 -10 -9 -9 -9 -6 -7 -8 -7 -6 -7 -8 -9 -9 -9 -9 -9 -9 -9 -9 -10 -10 -10 -10 -10 -10 -10 -10 -10 -11
-8 -9 -9 -10 -10 -12 -14 -16 -15 -12 -12 -10 -11 -10 -9 -8 -8 -7 -6 -6 -8 -7 -7 -7 -8 -9 -9 -10 -10 -14 -10 -10 -10 -10 -10 -10 -10 -10 -10 -9 -9 -10 -11 -11
-9 -9 -10 -14 -15 -16 -15 -15 -13 -12 -11 -10 -10 -10 -7 -5 -6 -6 -7 -6 -7 -6 -7 -7 -8 -8 -8 -9 -9 -9 -9 -11 -10 -10 -10 -10 -10 -10 -10 -10 -10 -10 -10 -10
-7 -8 -12 -12 -14 -14 -13 -12 -11 -10 -9 -10 -8 -6 -5 -5 -6 -6 -7 -7 -8 -6 -7 -7 -7 -7 -8 -8 -9 -9 -9 -10 -10 -10 -10 -10 -10 -10 -10 -10 -10 -11 -11 -11
-12 -13 -15 -16 -14 -14 -12 -12 -10 -9 -9 -7 -6 -6 -5 -5 -6 -6 -7 -7 -7 -6 -7 -7 -7 -7 -8 -8 -8 -8 -9 -9 -10 -10 -11 -11 -11 -10 -10 -10 -10 -10 -10 -11
-12 -14 -13 -12 -11 -10 -11 -10 -9 -8 -7 -6 -5 -5 -6 -6 -6 -7 -7 -7 -7 -7 -7 -7 -8 -7 -7 -7 -8 -8 -9 -9 -10 -10 -10 -10 -10 -10 -11 -11 -11 -11 -10 -10
-9 -11 -11 -10 -9 -9 -9 -10 -8 -6 -5 -5 -4 -5 -6 -7 -7 -7 -6 -7 -8 -8 -8 -7 -7 -8 -7 -7 -8 -8 -8 -9 -10 -10 -10 -10 -10 -11 -11 -11 -11 -10 -10 -10
-13 -12 -10 -8 -7 -8 -7 -7 -6 -5 -5 -5 -5 -6 -7 -7 -7 -7 -8 -8 -8 -8 -8 -8 -7 -7 -7 -7 -7 -7 -8 -8 -9 -9 -10 -10 -10 -11 -11 -11 -11 -11 -11 -11
-10 -9 -8 -7 -6 -6 -6 -6 -5 -5 -6 -7 -7 -7 -8 -8 -8 -8 -8 -8 -8 -8 -8 -8 -8 -7 -7 -7 -7 -7 -7 -8 -8 -9 -10 -10 -10 -11 -11 -12 -13 -12 -11 -11
-8 -7 -6 -6 -6 -7 -7 -6 -6 -7 -7 -7 -8 -8 -8 -8 -8 -8 -8 -8 -8 -8 -8 -8 -8 -7 -7 -7 -7 -7 -7 -7 -8 -9 -10 -10 -10 -10 -11 -12 -13 -13 -13 -13

GFSNGP_850_dewp_036.txt.gz
Dewpoint
2 0 -1 -2 -2 -3 -3 -3 0 0 2 3 3 2 2 2 2 1 1 -0 -1 -2 -3 -4 -6 -8 -7 -6 -4 -3 -5 -4 -4 -4 -5 -5 -4 -4 -3 -3 -6 -5 -5 -7
-0 3 2 -1 -2 0 -0 -2 -1 2 4 2 2 2 2 2 2 1 -1 -2 -4 -5 -6 -7 -6 -4 -3 -4 -5 -6 -7 -7 -5 -6 -5 -5 -4 -4 -4 -4 -5 -6 -7 -8
-1 3 1 1 1 -1 -1 -0 -0 1 2 2 2 2 2 2 1 -1 -3 -5 -6 -6 -6 -6 -6 -7 -9 -11 -11 -11 -11 -9 -9 -9 -8 -5 -5 -4 -4 -3 -5 -7 -6 -10
-0 -1 -7 -2 -1 -1 3 4 3 3 3 2 2 2 2 1 -3 -4 -5 -6 -6 -6 -10 -12 -12 -12 -12 -12 -13 -11 -10 -10 -9 -9 -8 -9 -8 -8 -4 -5 -5 -6 -10 -10
-2 3 -2 -0 0 1 -0 3 3 4 3 3 1 2 2 -2 -5 -5 -6 -7 -11 -12 -13 -13 -13 -13 -13 -13 -13 -11 -10 -10 -9 -9 -9 -10 -6 -4 -7 -6 -9 -10 -9 -9
3 -3 -3 -2 -0 -1 -2 3 4 3 3 2 1 -0 -0 -4 -5 -6 -9 -11 -12 -11 -11 -11 -11 -11 -12 -12 -10 -10 -9 -9 -8 -8 -10 -7 -4 -5 -8 -8 -7 -8 -8 -9
-1 -1 1 -1 -0 -1 2 1 3 3 2 1 0 -0 -2 -4 -6 -9 -11 -11 -11 -11 -11 -11 -11 -12 -10 -9 -8 -8 -8 -8 -8 -9 -8 -4 -5 -7 -8 -7 -7 -9 -9 -9
0 -1 2 -1 1 1 0 3 3 3 2 1 0 -3 -4 -5 -9 -10 -10 -11 -11 -12 -12 -12 -12 -10 -9 -8 -7 -7 -7 -6 -8 -8 -7 -7 -5 -5 -6 -7 -9 -9 -9 -10
2 2 -2 0 -0 0 2 3 3 2 1 0 -3 -5 -5 -9 -10 -10 -11 -11 -12 -12 -13 -16 -13 -11 -11 -10 -6 -5 -6 -5 -5 -7 -7 -6 -6 -6 -7 -7 -8 -9 -9 -11
2 1 2 2 3 3 4 3 2 2 1 -4 -5 -5 -10 -10 -11 -11 -11 -12 -11 -14 -16 -13 -12 -11 -10 -8 -5 -4 -5 -4 -5 -7 -6 -6 -6 -7 -7 -8 -8 -9 -11 -11
2 4 4 4 3 3 3 3 1 -2 -5 -5 -8 -10 -10 -11 -11 -11 -11 -11 -15 -15 -14 -13 -12 -11 -10 -8 -6 -5 -5 -5 -6 -7 -7 -7 -7 -8 -9 -9 -9 -10 -11 -11
3 1 2 2 3 3 2 -0 -4 -5 -6 -9 -10 -10 -11 -11 -11 -11 -12 -15 -15 -14 -14 -12 -11 -10 -8 -6 -6 -6 -6 -6 -7 -7 -7 -8 -8 -8 -8 -9 -10 -10 -10 -10
2 3 4 3 3 3 -1 -4 -4 -6 -7 -10 -11 -11 -11 -10 -10 -13 -16 -14 -13 -13 -13 -11 -11 -10 -8 -7 -7 -7 -7 -7 -8 -8 -8 -9 -9 -9 -9 -10 -10 -11 -11 -12
3 3 3 3 2 0 -3 -4 -7 -10 -10 -11 -10 -10 -11 -11 -14 -15 -13 -12 -12 -12 -11 -10 -10 -8 -7 -7 -7 -7 -7 -8 -8 -8 -9 -9 -10 -10 -10 -10 -10 -11 -11 -12
3 2 2 2 -0 -2 -3 -8 -10 -10 -10 -10 -10 -10 -14 -15 -13 -12 -11 -11 -11 -11 -10 -10 -8 -6 -7 -7 -7 -8 -8 -8 -8 -8 -9 -10 -10 -10 -10 -10 -10 -11 -11 -12
2 1 -0 -2 -2 -3 -9 -10 -10 -9 -9 -9 -9 -15 -14 -11 -11 -11 -10 -10 -11 -11 -9 -8 -7 -6 -7 -7 -8 -8 -8 -8 -8 -9 -9 -10 -10 -10 -10 -10 -10 -11 -10 -10
0 -1 -5 -8 -8 -9 -9 -9 -9 -10 -9 -13 -15 -14 -11 -10 -10 -11 -10 -11 -8 -7 -8 -7 -6 -7 -7 -8 -8 -8 -9 -9 -9 -9 -10 -10 -10 -10 -10 -10 -10 -10 -10 -11
-1 -3 -4 -3 -6 -9 -9 -10 -12 -16 -17 -15 -13 -10 -10 -10 -9 -8 -8 -7 -6 -7 -8 -7 -7 -8 -8 -9 -10 -11 -11 -11 -10 -10 -10 -10 -10 -10 -11 -10 -10 -10 -10 -11
-2 -4 -9 -9 -10 -15 -17 -18 -18 -17 -15 -12 -10 -10 -10 -8 -5 -5 -6 -6 -7 -7 -8 -6 -6 -7 -8 -8 -8 -9 -10 -9 -10 -11 -10 -10 -10 -11 -10 -11 -10 -10 -10 -10
-8 -9 -10 -13 -15 -17 -17 -16 -14 -13 -11 -9 -9 -9 -7 -6 -5 -5 -6 -6 -7 -7 -7 -6 -7 -8 -7 -7 -8 -8 -8 -9 -9 -9 -10 -11 -11 -11 -11 -11 -10 -10 -10 -11
-7 -8 -13 -14 -16 -16 -14 -12 -11 -11 -9 -9 -8 -7 -6 -5 -6 -7 -7 -7 -8 -7 -7 -7 -7 -7 -8 -8 -8 -8 -8 -9 -9 -9 -9 -10 -10 -11 -11 -11 -10 -10 -10 -9
-13 -13 -14 -15 -14 -14 -13 -11 -10 -9 -9 -8 -6 -6 -5 -5 -6 -7 -7 -7 -7 -7 -8 -8 -9 -8 -7 -7 -7 -8 -8 -8 -8 -9 -9 -10 -10 -10 -11 -11 -11 -11 -10 -11
-11 -11 -12 -13 -12 -11 -10 -10 -9 -7 -7 -6 -5 -5 -5 -5 -6 -7 -8 -8 -7 -7 -8 -8 -9 -8 -7 -7 -7 -7 -8 -8 -8 -8 -9 -10 -10 -10 -10 -11 -11 -11 -11 -10
-13 -12 -12 -11 -9 -8 -8 -9 -8 -6 -6 -6 -6 -5 -5 -6 -7 -8 -8 -8 -9 -9 -9 -9 -8 -8 -8 -8 -7 -7 -7 -8 -8 -8 -8 -9 -10 -10 -10 -10 -11 -11 -11 -11
-11 -10 -9 -7 -7 -8 -7 -6 -5 -6 -7 -6 -6 -7 -7 -7 -8 -8 -8 -9 -9 -9 -9 -9 -9 -8 -8 -8 -7 -7 -7 -7 -7 -7 -8 -8 -9 -10 -10 -10 -11 -11 -12 -12
-9 -8 -7 -7 -6 -7 -7 -6 -6 -6 -5 -6 -7 -8 -8 -8 -9 -9 -8 -8 -9 -9 -10 -10 -9 -8 -8 -8 -8 -8 -8 -7 -7 -7 -7 -8 -8 -9 -10 -10 -10 -11 -12 -12
-9 -9 -7 -7 -7 -6 -6 -6 -6 -6 -7 -8 -8 -9 -9 -9 -8 -8 -9 -9 -9 -10 -12 -13 -13 -13 -12 -11 -9 -8 -8 -8 -8 -8 -8 -8 -8 -9 -10 -10 -11 -11 -11 -12

GFSNGP_850_dewp_039.txt.gz
Dewpoint
1 1 -1 -3 -3 -3 -3 -3 -1 -2 1 2 3 2 3 3 2 1 -0 -2 -4 -5 -6 -5 -5 -5 -5 -5 -7 -8 -11 -12 -12 -12 -10 -7 -9 -8 -6 -6 -4 -4 -4 -5
1 2 1 -1 -3 -2 -1 -2 -2 2 4 2 2 2 3 2 1 -0 -2 -5 -7 -6 -5 -6 -8 -9 -10 -11 -12 -13 -13 -14 -12 -10 -10 -10 -9 -8 -8 -7 -4 -3 -4 -7
-4 2 -2 -4 -2 -1 -1 -0 -1 4 2 2 2 2 2 2 0 -3 -5 -6 -5 -5 -8 -12 -12 -12 -13 -13 -12 -12 -12 -10 -10 -9 -9 -9 -9 -10 -7 -5 -5 -5 -6 -6
-2 -2 -5 -5 -2 -2 -0 2 2 3 2 2 2 2 2 1 -3 -5 -5 -4 -6 -10 -12 -12 -12 -12 -11 -11 -11 -11 -10 -9 -9 -9 -8 -9 -11 -7 -4 -4 -5 -6 -9 -9
-1 0 -4 -3 1 3 1 1 3 3 2 2 2 2 2 0 -5 -5 -5 -8 -12 -12 -11 -11 -11 -11 -11 -11 -9 -9 -9 -9 -8 -8 -7 -10 -11 -5 -5 -6 -7 -8 -8 -8
2 -4 -6 -6 -0 -1 -2 1 3 3 3 2 2 2 -0 -0 -5 -5 -8 -11 -11 -11 -11 -11 -12 -12 -13 -14 -12 -12 -9 -7 -7 -6 -7 -8 -9 -6 -7 -7 -7 -7 -7 -8
-3 -2 -1 -3 -1 -2 1 -3 3 3 3 2 1 0 -1 -4 -4 -8 -10 -11 -11 -11 -12 -13 -14 -16 -18 -18 -16 -14 -7 -6 -6 -5 -5 -7 -8 -6 -7 -7 -6 -7 -8 -9
0 -0 1 -2 -1 0 -1 -1 1 3 3 2 1 -0 -3 -4 -7 -10 -10 -10 -11 -12 -14 -15 -19 -19 -17 -16 -14 -11 -6 -5 -5 -5 -5 -6 -6 -6 -6 -7 -8 -8 -8 -9
1 1 -2 0 -0 -1 -1 0 3 3 3 2 0 -3 -4 -6 -10 -10 -10 -11 -11 -13 -15 -19 -18 -16 -15 -13 -11 -9 -6 -5 -5 -5 -6 -6 -6 -6 -7 -7 -8 -8 -9 -10
1 -1 -0 -1 0 2 2 2 3 3 2 1 -2 -4 -6 -9 -10 -11 -11 -11 -12 -15 -18 -17 -16 -14 -12 -11 -9 -8 -7 -7 -6 -6 -7 -7 -7 -7 -8 -8 -8 -9 -10 -11
2 2 4 3 2 2 3 3 3 2 1 -2 -5 -7 -9 -10 -11 -11 -11 -11 -15 -17 -15 -15 -14 -12 -11 -10 -9 -8 -7 -7 -6 -8 -7 -7 -8 -8 -8 -9 -9 -10 -10 -11
2 -0 1 1 1 3 3 3 1 -2 -4 -5 -8 -9 -10 -11 -11 -11 -11 -15 -15 -15 -14 -13 -12 -12 -11 -10 -8 -7 -7 -7 -7 -8 -8 -8 -9 -9 -9 -9 -10 -9 -10 -11
1 2 2 2 3 3 3 1 -4 -5 -5 -8 -10 -11 -11 -10 -12 -12 -14 -14 -14 -13 -12 -11 -11 -10 -10 -7 -8 -7 -8 -8 -8 -9 -9 -9 -10 -10 -10 -10 -10 -10 -11 -11
1 2 3 3 3 3 0 -4 -4 -6 -9 -10 -10 -10 -10 -11 -16 -15 -14 -13 -12 -12 -12 -11 -11 -10 -8 -7 -7 -8 -8 -8 -8 -9 -9 -9 -10 -10 -10 -10 -10 -11 -11 -11
3 3 2 3 2 -0 -2 -3 -8 -8 -9 -10 -9 -9 -12 -16 -15 -13 -12 -11 -11 -12 -11 -11 -9 -8 -7 -7 -7 -8 -8 -8 -9 -9 -8 -9 -10 -10 -10 -10 -10 -11 -11 -11
3 2 2 1 1 -2 -7 -7 -7 -9 -8 -9 -10 -16 -16 -15 -12 -12 -11 -10 -10 -10 -8 -8 -7 -7 -7 -7 -7 -8 -8 -9 -9 -9 -9 -10 -10 -10 -11 -10 -11 -11 -11 -10
1 -1 -2 -4 -3 -1 -2 -6 -9 -9 -11 -16 -18 -16 -16 -13 -12 -10 -9 -8 -7 -6 -7 -8 -8 -7 -7 -7 -8 -8 -9 -8 -9 -10 -10 -11 -11 -11 -11 -11 -11 -11 -11 -10
-2 -2 -1 -0 -1 -4 -7 -10 -14 -18 -19 -18 -16 -15 -12 -11 -10 -7 -6 -6 -6 -6 -7 -8 -7 -7 -7 -8 -7 -8 -8 -9 -10 -10 -11 -10 -11 -11 -11 -11 -10 -10 -10 -10
-0 -1 -5 -7 -12 -16 -18 -19 -19 -18 -16 -15 -13 -11 -10 -10 -7 -6 -6 -7 -8 -8 -8 -7 -7 -7 -7 -7 -8 -8 -8 -9 -9 -9 -9 -10 -11 -11 -11 -11 -10 -10 -11 -11
-9 -10 -11 -13 -15 -16 -18 -17 -16 -15 -14 -11 -10 -10 -9 -8 -7 -6 -6 -6 -7 -8 -7 -7 -7 -7 -8 -7 -8 -8 -8 -9 -9 -9 -9 -9 -9 -10 -11 -11 -11 -11 -10 -10
-9 -12 -14 -15 -17 -17 -15 -14 -12 -12 -12 -10 -9 -9 -7 -7 -6 -5 -5 -6 -8 -8 -7 -6 -7 -8 -8 -8 -8 -7 -7 -8 -8 -8 -9 -9 -9 -10 -10 -10 -10 -11 -11 -11
-13 -14 -14 -14 -14 -15 -13 -12 -11 -10 -9 -9 -9 -8 -7 -7 -6 -5 -5 -7 -8 -8 -8 -8 -9 -8 -8 -8 -8 -8 -8 -7 -7 -8 -8 -8 -8 -9 -10 -10 -10 -10 -11 -11
-15 -14 -14 -14 -13 -12 -12 -12 -10 -9 -7 -7 -7 -7 -6 -6 -6 -7 -8 -9 -8 -8 -8 -8 -9 -9 -9 -8 -8 -8 -8 -8 -8 -8 -8 -8 -8 -8 -9 -10 -10 -10 -10 -11
-13 -13 -11 -9 -8 -7 -7 -8 -8 -7 -6 -6 -6 -7 -6 -6 -7 -8 -8 -9 -9 -9 -9 -9 -10 -9 -8 -8 -8 -8 -8 -8 -8 -7 -7 -8 -8 -8 -8 -9 -10 -10 -10 -11
-10 -8 -8 -8 -8 -7 -7 -7 -6 -6 -6 -7 -7 -6 -6 -6 -7 -9 -9 -9 -8 -9 -9 -10 -11 -13 -13 -11 -10 -9 -8 -8 -8 -8 -8 -8 -8 -8 -8 -8 -9 -10 -10 -11
-11 -11 -11 -10 -9 -7 -6 -6 -6 -6 -6 -5 -5 -5 -6 -7 -8 -9 -9 -9 -8 -9 -10 -11 -13 -14 -14 -14 -14 -14 -13 -11 -9 -9 -8 -9 -8 -8 -8 -9 -9 -10 -10 -11
-11 -12 -14 -14 -12 -11 -11 -11 -12 -14 -12 -5 -5 -6 -6 -6 -8 -8 -8 -8 -9 -10 -11 -13 -14 -14 -14 -15 -15 -15 -14 -11 -10 -9 -9 -9 -8 -8 -9 -9 -10 -10 -11 -11

GFSNGP_850_dewp_042.txt.gz
Dewpoint
1 1 -1 -3 -4 -3 -2 -2 -1 -3 1 -1 2 2 3 3 2 1 -0 -2 -5 -6 -6 -6 -6 -7 -8 -10 -12 -13 -12 -14 -13 -11 -10 -10 -10 -10 -11 -9 -6 -5 -3 -4
2 2 1 -0 -2 -3 -3 -3 -2 -1 0 1 2 2 3 3 2 1 -1 -5 -6 -6 -5 -7 -10 -12 -12 -12 -12 -12 -14 -13 -11 -10 -9 -9 -8 -9 -11 -8 -4 -4 -6 -5
1 0 -3 -3 -2 -2 -1 -1 -1 2 -0 2 2 2 3 2 1 -0 -4 -6 -5 -5 -8 -12 -12 -12 -12 -11 -13 -15 -14 -11 -10 -9 -8 -8 -7 -10 -11 -6 -4 -5 -7 -7
-3 -3 -7 -6 -5 -2 -2 -1 -0 1 1 2 2 2 2 2 1 -3 -6 -5 -5 -8 -12 -12 -12 -11 -12 -14 -15 -16 -15 -13 -9 -8 -7 -6 -7 -8 -9 -6 -8 -8 -8 -9
-2 -1 -5 -6 1 1 -0 -1 2 1 2 2 2 2 2 2 0 -5 -5 -5 -9 -12 -11 -11 -11 -13 -15 -18 -19 -18 -17 -15 -9 -7 -6 -6 -6 -7 -7 -7 -8 -8 -7 -7
-1 -5 -6 -6 -1 -1 -2 2 1 2 2 2 2 2 1 1 1 -4 -5 -8 -11 -11 -11 -11 -13 -16 -18 -19 -18 -18 -17 -15 -11 -6 -5 -6 -5 -6 -7 -6 -6 -7 -7 -7
-3 -4 -2 -4 -1 -2 1 -1 2 2 2 2 1 1 0 0 -1 -4 -8 -11 -11 -11 -11 -13 -16 -18 -18 -18 -18 -18 -16 -14 -9 -6 -6 -5 -6 -6 -6 -6 -6 -7 -8 -8
-1 -2 1 -4 -1 0 -1 -3 -2 1 1 2 1 1 -0 -2 -3 -7 -10 -10 -11 -11 -12 -15 -17 -17 -18 -18 -18 -17 -15 -12 -8 -6 -6 -6 -7 -6 -7 -6 -7 -8 -8 -9
0 1 -3 -3 -1 -1 -1 -1 -1 1 2 2 2 1 -2 -3 -5 -10 -10 -10 -11 -11 -14 -17 -17 -17 -17 -16 -16 -15 -13 -10 -10 -8 -7 -7 -7 -7 -7 -7 -8 -8 -9 -10
0 -2 -1 -2 -2 -0 1 1 1 1 2 3 2 -1 -3 -5 -10 -10 -10 -10 -11 -13 -17 -17 -16 -15 -15 -14 -13 -12 -10 -8 -8 -7 -7 -8 -7 -7 -8 -8 -9 -9 -9 -10
1 0 1 0 0 -1 0 2 3 3 3 2 -0 -2 -2 -9 -10 -10 -10 -11 -13 -16 -16 -15 -14 -14 -12 -12 -11 -10 -9 -8 -8 -8 -8 -9 -8 -8 -9 -9 -9 -10 -10 -10
1 -2 -1 -1 -0 1 2 3 3 2 1 -2 -0 -5 -8 -10 -11 -11 -13 -15 -16 -15 -14 -14 -13 -12 -11 -10 -9 -7 -8 -8 -8 -8 -9 -9 -9 -9 -10 -10 -10 -10 -10 -11
-0 1 1 1 2 2 3 3 2 0 -3 0 -8 -5 -10 -10 -11 -13 -15 -14 -14 -14 -13 -13 -13 -13 -12 -9 -7 -7 -7 -8 -8 -8 -8 -9 -10 -10 -11 -11 -10 -10 -10 -11
2 2 2 3 3 3 3 1 -1 -3 -7 -4 -5 -10 -10 -10 -13 -15 -14 -13 -13 -12 -12 -12 -12 -12 -9 -7 -7 -7 -7 -8 -8 -8 -8 -9 -8 -10 -10 -11 -11 -11 -11 -11
3 3 2 3 3 1 -1 -3 -6 -4 -2 -4 -9 -9 -11 -16 -15 -14 -13 -13 -12 -11 -11 -12 -10 -10 -9 -7 -7 -8 -8 -8 -9 -9 -9 -9 -10 -10 -11 -11 -11 -10 -11 -11
3 2 2 2 -2 -5 -4 -3 -2 -2 -5 -8 -9 -14 -16 -15 -14 -12 -12 -12 -10 -11 -11 -10 -8 -8 -8 -7 -7 -7 -8 -8 -9 -9 -10 -10 -10 -11 -11 -11 -11 -11 -11 -11
2 -2 -2 -4 -5 -2 -1 -3 -6 -8 -9 -14 -18 -16 -15 -14 -12 -12 -11 -9 -10 -8 -7 -8 -8 -8 -8 -7 -7 -8 -8 -8 -8 -9 -11 -10 -10 -10 -10 -11 -11 -11 -11 -11
-1 -2 -0 -0 -1 -4 -6 -8 -13 -18 -19 -18 -17 -16 -15 -14 -12 -11 -9 -7 -7 -6 -6 -8 -8 -8 -7 -7 -7 -7 -8 -8 -8 -9 -9 -9 -10 -11 -11 -11 -11 -11 -11 -11
-1 -4 -7 -9 -13 -15 -17 -18 -18 -18 -17 -16 -16 -15 -13 -12 -10 -9 -7 -6 -6 -6 -6 -8 -8 -7 -7 -7 -8 -8 -7 -8 -9 -9 -9 -9 -9 -10 -10 -10 -11 -11 -11 -11
-10 -10 -10 -12 -15 -17 -18 -18 -17 -17 -15 -13 -12 -11 -10 -10 -8 -7 -6 -7 -7 -6 -8 -9 -9 -8 -7 -7 -8 -8 -8 -8 -8 -8 -8 -9 -9 -9 -9 -9 -10 -10 -11 -11
-12 -13 -14 -16 -16 -16 -15 -14 -13 -11 -11 -10 -10 -10 -9 -10 -9 -8 -8 -8 -9 -8 -10 -10 -8 -9 -9 -8 -8 -8 -8 -8 -8 -8 -8 -8 -8 -8 -8 -9 -9 -9 -10 -11
-13 -13 -14 -14 -14 -14 -12 -12 -11 -10 -10 -10 -9 -8 -8 -8 -8 -7 -6 -6 -8 -8 -9 -9 -9 -9 -9 -9 -9 -9 -8 -8 -8 -8 -8 -8 -8 -8 -8 -8 -8 -9 -9 -10
-13 -13 -12 -11 -11 -10 -11 -10 -10 -9 -9 -8 -7 -6 -6 -6 -6 -6 -6 -7 -7 -9 -9 -9 -9 -9 -10 -11 -10 -9 -8 -9 -8 -8 -8 -8 -8 -8 -8 -8 -8 -8 -8 -9
-10 -10 -10 -9 -9 -12 -13 -13 -11 -9 -7 -6 -6 -5 -5 -5 -6 -5 -5 -6 -8 -9 -10 -8 -8 -10 -11 -12 -13 -13 -13 -11 -10 -9 -9 -9 -9 -8 -8 -8 -8 -8 -8 -9
-10 -10 -11 -12 -12 -12 -11 -12 -14 -15 -17 -17 -16 -14 -11 -5 -5 -5 -6 -7 -8 -9 -9 -8 -9 -11 -13 -14 -14 -14 -15 -14 -13 -11 -11 -10 -9 -9 -9 -9 -9 -9 -9 -9
-10 -10 -11 -13 -16 -16 -16 -16 -17 -16 -14 -14 -15 -12 -12 -8 -7 -7 -7 -7 -8 -8 -8 -9 -10 -13 -14 -14 -15 -16 -16 -15 -14 -12 -10 -10 -10 -9 -9 -9 -9 -9 -9 -10
-11 -14 -17 -18 -18 -18 -18 -17 -16 -15 -13 -11 -10 -10 -9 -8 -8 -8 -7 -7 -8 -9 -9 -10 -11 -13 -13 -14 -14 -15 -15 -14 -13 -13 -12 -11 -10 -9 -9 -9 -10 -10 -10 -10